M I D A S
Marine Information and Data Acquisition System
Tripno 1888 of the Zeeleeuw from 2010-05-27 06:36:30 to 2010-05-27 13:59:45
Back to CruiseResearch ActivitiesStationsMapUnderway DataData graphs

EquipmentUnitsComment
TimeDGPSUTC
LatitudeDGPSDM.mWGS84
LongitudeDGPSDM.mWGS84
TemperatureSBE03/SBE38deg celciusITS90
ConductivitySBE21S/mITS90
SalinitySBE21 Practical Salinity Units
ChlorophylAChelsea fluorimeterg/lCalibrated in Aceton
Missing or incorrect values are displayed as -999
Sea surface data collected by the RV Zeeleeuw from 2010-05-27 06:23:34 to 2010-05-27 13:57:33
                                                                                    Next 1000 lines
Time Latitude Longitude Temperature Conductivity Salinity ChlorophylA
2010-05-27 06:23:44 51°13.662 2°55.956 20.4946 0.079625 0.430896 -1.035392
2010-05-27 06:23:49 51°13.662 2°55.952 20.5527 0.079625 0.430896 -1.000568
2010-05-27 06:23:54 51°13.664 2°55.948 20.5913 0.079625 0.430909 -1.035392
2010-05-27 06:23:58 51°13.664 2°55.944 20.557 0.079625 0.430909 -1.070216
2010-05-27 06:24:04 51°13.666 2°55.938 20.5656 0.079625 0.430923 -1.035392
2010-05-27 06:24:10 51°13.668 2°55.931 20.5565 0.079625 0.430923 -1.035392
2010-05-27 06:24:15 51°13.669 2°55.924 20.56 0.079625 0.430923 -1.035392
2010-05-27 06:24:21 51°13.67 2°55.916 20.6089 0.079625 0.430923 -1.000568
2010-05-27 06:24:26 51°13.671 2°55.91 20.6012 0.079625 0.430916 -1.000568
2010-05-27 06:24:31 51°13.672 2°55.903 20.6127 0.079625 0.430923 -1.000568
2010-05-27 06:24:36 51°13.673 2°55.895 20.6314 0.079625 0.430923 -1.000568
2010-05-27 06:24:42 51°13.674 2°55.887 20.6165 0.079625 0.430923 -1.000568
2010-05-27 06:24:46 51°13.675 2°55.881 20.632 0.079625 0.430923 -1.000568
2010-05-27 06:24:52 51°13.676 2°55.871 20.64 0.079625 0.430916 -1.000568
2010-05-27 06:24:56 51°13.677 2°55.864 20.6364 0.079625 0.430909 -1.000568
2010-05-27 06:25:02 51°13.679 2°55.854 20.634 0.079625 0.430916 -1.000568
2010-05-27 06:25:06 51°13.68 2°55.847 20.6454 0.079625 0.43093 -1.035392
2010-05-27 06:25:12 51°13.681 2°55.838 20.6528 0.079625 0.43093 -1.035392
2010-05-27 06:25:17 51°13.683 2°55.829 20.652 0.079625 0.43093 -1.035392
2010-05-27 06:25:22 51°13.684 2°55.821 20.6493 0.079625 0.430937 -1.035392
2010-05-27 06:25:27 51°13.685 2°55.814 20.6373 0.079625 0.430937 -1.035392
2010-05-27 06:25:32 51°13.686 2°55.806 20.6344 0.079625 0.430937 -1.035392
2010-05-27 06:25:37 51°13.686 2°55.799 20.6363 0.079625 0.430944 -1.035392
2010-05-27 06:25:42 51°13.687 2°55.792 20.6386 0.079625 0.430944 -1.035392
2010-05-27 06:25:47 51°13.687 2°55.785 20.6394 0.079625 0.430944 -1.000568
2010-05-27 06:25:51 51°13.687 2°55.78 20.6384 0.079625 0.430944 -1.000568
2010-05-27 06:25:56 51°13.688 2°55.773 20.6254 0.079625 0.430937 -1.000568
2010-05-27 06:26:01 51°13.688 2°55.767 20.6312 0.079625 0.430944 -1.035392
2010-05-27 06:26:06 51°13.688 2°55.761 20.6172 0.079625 0.430937 -1.000568
2010-05-27 06:26:11 51°13.688 2°55.757 20.6171 0.079625 0.430937 -1.000568
2010-05-27 06:26:16 51°13.688 2°55.752 20.6344 0.079625 0.430937 -1.035392
2010-05-27 06:26:20 51°13.688 2°55.749 20.6414 0.079625 0.430944 -1.035392
2010-05-27 06:26:25 51°13.687 2°55.746 20.6393 0.079625 0.430944 -1.035392
2010-05-27 06:26:30 51°13.688 2°55.744 20.6315 0.079625 0.430944 -1.035392
2010-05-27 06:26:35 51°13.688 2°55.742 20.6267 0.079625 0.430944 -1.035392
2010-05-27 06:26:40 51°13.688 2°55.74 20.6206 0.079625 0.430944 -1.035392
2010-05-27 06:26:45 51°13.688 2°55.739 20.6209 0.079625 0.43095 -1.000568
2010-05-27 06:26:49 51°13.688 2°55.738 20.6249 0.079625 0.43095 -1.000568
2010-05-27 06:26:54 51°13.688 2°55.737 20.6257 0.079625 0.43095 -1.000568
2010-05-27 06:26:59 51°13.688 2°55.736 20.6259 0.079625 0.430957 -1.000568
2010-05-27 06:27:04 51°13.688 2°55.736 20.6259 0.079625 0.43095 -1.035392
2010-05-27 06:27:09 51°13.688 2°55.735 20.6267 0.079625 0.43095 -1.035392
2010-05-27 06:27:14 51°13.688 2°55.735 20.6252 0.079625 0.430957 -1.035392
2010-05-27 06:27:19 51°13.689 2°55.734 20.6255 0.079625 0.430957 -1.035392
2010-05-27 06:27:23 51°13.689 2°55.734 20.6243 0.079625 0.430957 -1.000568
2010-05-27 06:27:27 51°13.69 2°55.734 20.6266 0.079625 0.430957 -1.035392
2010-05-27 06:27:33 51°13.691 2°55.734 20.6285 0.079625 0.430957 -1.000568
2010-05-27 06:27:38 51°13.691 2°55.734 20.6305 0.079625 0.430957 -1.000568
2010-05-27 06:27:43 51°13.692 2°55.734 20.6393 0.079625 0.430964 -1.035392
2010-05-27 06:27:47 51°13.693 2°55.735 20.6465 0.079625 0.430964 -1.000568
2010-05-27 06:27:53 51°13.695 2°55.735 20.6499 0.079625 0.430964 -1.035392
2010-05-27 06:27:58 51°13.697 2°55.736 20.665 0.079625 0.430971 -1.000568
2010-05-27 06:28:03 51°13.698 2°55.736 20.6783 0.079625 0.430971 -1.035392
2010-05-27 06:28:08 51°13.701 2°55.737 20.6749 0.079625 0.430971 -1.035392
2010-05-27 06:28:13 51°13.703 2°55.737 20.6879 0.079625 0.430978 -1.000568
2010-05-27 06:28:18 51°13.706 2°55.737 20.6912 0.079625 0.430978 -1.035392
2010-05-27 06:28:23 51°13.708 2°55.737 20.6932 0.079625 0.430978 -1.000568
2010-05-27 06:28:27 51°13.711 2°55.737 20.7028 0.079625 0.430971 -1.000568
2010-05-27 06:28:33 51°13.715 2°55.736 20.7055 0.079625 0.430971 -1.035392
2010-05-27 06:28:39 51°13.719 2°55.734 20.7127 0.079625 0.430971 -1.035392
2010-05-27 06:28:43 51°13.722 2°55.733 20.6847 0.079625 0.430978 -1.035392
2010-05-27 06:28:47 51°13.725 2°55.731 20.67 0.079625 0.430978 -1.000568
2010-05-27 06:28:53 51°13.73 2°55.728 20.6554 0.079625 0.430971 -0.965744
2010-05-27 06:28:58 51°13.735 2°55.725 20.638 0.079625 0.430964 -1.035392
2010-05-27 06:29:03 51°13.74 2°55.721 20.6302 0.079625 0.430957 -1.035392
2010-05-27 06:29:08 51°13.744 2°55.717 20.6178 0.079625 0.430957 -1.035392
2010-05-27 06:29:13 51°13.75 2°55.713 20.6158 0.079625 0.430964 -1.070216
2010-05-27 06:29:18 51°13.755 2°55.709 20.6145 0.079625 0.430957 -1.000568
2010-05-27 06:29:23 51°13.761 2°55.704 20.6145 0.079625 0.430964 -1.035392
2010-05-27 06:29:27 51°13.765 2°55.7 20.6126 0.079625 0.430971 -1.000568
2010-05-27 06:29:33 51°13.772 2°55.693 20.6049 0.079625 0.430978 -1.000568
2010-05-27 06:29:39 51°13.779 2°55.686 20.5664 0.079625 0.430978 -1.000568
2010-05-27 06:29:43 51°13.784 2°55.681 20.5376 0.079625 0.430985 -1.035392
2010-05-27 06:29:47 51°13.789 2°55.676 20.5219 0.079625 0.430985 -1.035392
2010-05-27 06:29:53 51°13.797 2°55.668 20.4784 0.079625 0.430985 -1.000568
2010-05-27 06:29:58 51°13.804 2°55.662 20.4646 0.079625 0.430985 -1.035392
2010-05-27 06:30:03 51°13.811 2°55.655 20.4575 0.079625 0.430978 -1.035392
2010-05-27 06:30:08 51°13.818 2°55.649 20.4497 0.079625 0.430978 -1.035392
2010-05-27 06:30:14 51°13.827 2°55.642 20.4438 0.079625 0.430985 -1.035392
2010-05-27 06:30:18 51°13.834 2°55.638 20.4364 0.079625 0.430998 -1.000568
2010-05-27 06:30:23 51°13.842 2°55.633 20.466 0.079625 0.430998 -1.035392
2010-05-27 06:30:28 51°13.85 2°55.628 20.4852 0.079625 0.431005 -1.000568
2010-05-27 06:30:33 51°13.858 2°55.622 20.5228 0.079625 0.431012 -1.035392
2010-05-27 06:30:39 51°13.867 2°55.616 20.5259 0.079625 0.431012 -1.035392
2010-05-27 06:30:43 51°13.874 2°55.611 20.5367 0.079625 0.431026 -1.035392
2010-05-27 06:30:48 51°13.882 2°55.606 20.5451 0.079625 0.431026 -1.000568
2010-05-27 06:30:53 51°13.89 2°55.6 20.5565 0.079625 0.431026 -1.035392
2010-05-27 06:30:59 51°13.9 2°55.592 20.5557 0.079625 0.431026 -1.000568
2010-05-27 06:31:04 51°13.908 2°55.586 20.5768 0.079625 0.431019 -1.000568
2010-05-27 06:31:08 51°13.915 2°55.581 20.5794 0.079625 0.431019 -1.000568
2010-05-27 06:31:13 51°13.924 2°55.575 20.5795 0.079625 0.431019 -1.000568
2010-05-27 06:31:18 51°13.933 2°55.568 20.5281 0.079625 0.431019 -1.035392
2010-05-27 06:31:23 51°13.942 2°55.561 20.5024 0.079625 0.431019 -1.000568
2010-05-27 06:31:28 51°13.952 2°55.554 20.5137 0.079625 0.431026 -1.070216
2010-05-27 06:31:33 51°13.962 2°55.547 20.554 0.079625 0.431019 -1.035392
2010-05-27 06:31:38 51°13.972 2°55.54 20.5578 0.079625 0.431019 -1.035392
2010-05-27 06:31:43 51°13.983 2°55.533 20.4756 0.079625 0.431026 -1.000568
2010-05-27 06:31:48 51°13.993 2°55.525 20.3008 0.079625 0.431032 -1.000568
2010-05-27 06:31:53 51°14.005 2°55.518 20.3445 0.079625 0.431032 -1.000568
2010-05-27 06:31:58 51°14.016 2°55.511 20.3652 0.079625 0.431019 -1.035392
2010-05-27 06:32:03 51°14.028 2°55.504 20.3397 0.079625 0.431026 -1.035392
2010-05-27 06:32:08 51°14.04 2°55.497 20.3131 0.079625 0.431026 -1.035392
2010-05-27 06:32:13 51°14.052 2°55.491 20.359 0.079625 0.431032 -1.035392
2010-05-27 06:32:18 51°14.064 2°55.485 20.4283 0.079625 0.431032 -1.035392
2010-05-27 06:32:23 51°14.076 2°55.478 20.4106 0.079625 0.431039 -1.000568
2010-05-27 06:32:28 51°14.088 2°55.471 20.4229 0.079625 0.431046 -1.070216
2010-05-27 06:32:33 51°14.1 2°55.464 20.4579 0.079625 0.431053 -1.000568
2010-05-27 06:32:38 51°14.113 2°55.457 20.5338 0.079625 0.431053 -1.000568
2010-05-27 06:32:44 51°14.127 2°55.447 20.6167 0.079625 0.43106 -1.000568
2010-05-27 06:32:48 51°14.137 2°55.441 20.5842 0.079625 0.43106 -1.000568
2010-05-27 06:32:54 51°14.151 2°55.429 20.5746 0.079625 0.43106 -1.000568
2010-05-27 06:32:59 51°14.162 2°55.419 20.522 0.079625 0.431073 -1.035392
2010-05-27 06:33:04 51°14.174 2°55.409 20.477 0.079625 0.431067 -1.035392
2010-05-27 06:33:08 51°14.183 2°55.4 20.4366 0.079625 0.431067 -1.035392
2010-05-27 06:33:14 51°14.196 2°55.387 20.4819 0.079625 0.43106 -1.035392
2010-05-27 06:33:19 51°14.208 2°55.376 20.4939 0.079625 0.43106 -1.000568
2010-05-27 06:33:24 51°14.219 2°55.364 20.56 0.079625 0.431053 -1.000568
2010-05-27 06:33:28 51°14.227 2°55.355 20.5322 0.079625 0.43106 -1.035392
2010-05-27 06:33:33 51°14.238 2°55.342 20.4968 0.079625 0.431067 -1.000568
2010-05-27 06:33:38 51°14.248 2°55.33 20.4431 0.079625 0.431067 -1.000568
2010-05-27 06:33:43 51°14.259 2°55.317 20.4062 0.079625 0.431073 -1.000568
2010-05-27 06:33:48 51°14.269 2°55.305 20.3091 0.079625 0.43108 -1.035392
2010-05-27 06:33:53 51°14.28 2°55.293 20.3188 0.079625 0.431073 -1.035392
2010-05-27 06:33:58 51°14.29 2°55.281 20.3343 0.079625 0.43108 -1.000568
2010-05-27 06:34:03 51°14.301 2°55.269 20.3768 0.079625 0.43108 -1.000568
2010-05-27 06:34:08 51°14.312 2°55.258 20.5114 0.079625 0.43108 -1.000568
2010-05-27 06:34:13 51°14.324 2°55.247 20.5479 0.079625 0.431073 -1.035392
2010-05-27 06:34:18 51°14.334 2°55.234 20.5522 0.079625 0.431087 -1.035392
2010-05-27 06:34:24 51°14.347 2°55.218 20.5248 0.079625 0.431108 -1.000568
2010-05-27 06:34:28 51°14.355 2°55.207 20.4355 0.079625 0.431121 -1.000568
2010-05-27 06:34:33 51°14.365 2°55.193 20.4184 0.079625 0.431121 -1.000568
2010-05-27 06:34:38 51°14.376 2°55.178 20.528 0.079625 0.431121 -1.000568
2010-05-27 06:34:43 51°14.386 2°55.162 20.3971 0.079625 0.431115 -1.000568
2010-05-27 06:34:48 51°14.396 2°55.146 20.2679 0.079625 0.431108 -1.035392
2010-05-27 06:34:53 51°14.406 2°55.129 20.2063 0.079625 0.431115 -1.000568
2010-05-27 06:34:58 51°14.417 2°55.114 20.1888 0.079625 0.431101 -1.035392
2010-05-27 06:35:03 51°14.429 2°55.098 20.1817 0.079625 0.431094 -1.000568
2010-05-27 06:35:08 51°14.441 2°55.085 20.2784 0.079625 0.431094 -1.000568
2010-05-27 06:35:13 51°14.453 2°55.071 20.3238 0.079625 0.431087 -1.000568
2010-05-27 06:35:18 51°14.466 2°55.058 20.4183 0.079625 0.431094 -1.035392
2010-05-27 06:35:23 51°14.479 2°55.046 20.4639 0.079625 0.431115 -1.035392
2010-05-27 06:35:28 51°14.492 2°55.032 20.3581 0.079625 0.431135 -1.035392
2010-05-27 06:35:33 51°14.504 2°55.016 20.3926 0.079625 0.431169 -1.000568
2010-05-27 06:35:38 51°14.516 2°55 20.3753 0.079625 0.431169 -1.000568
2010-05-27 06:35:43 51°14.528 2°54.982 20.343 0.079625 0.431176 -1.035392
2010-05-27 06:35:48 51°14.539 2°54.964 20.2969 0.079625 0.431169 -1.035392
2010-05-27 06:35:53 51°14.551 2°54.945 20.1549 0.079625 0.431169 -1.035392
2010-05-27 06:35:58 51°14.563 2°54.927 20.1666 0.079625 0.431135 -1.035392
2010-05-27 06:36:03 51°14.575 2°54.909 20.2252 0.079625 0.431115 -1.000568
2010-05-27 06:36:08 51°14.588 2°54.894 20.2856 0.079625 0.431115 -1.000568
2010-05-27 06:36:13 51°14.6 2°54.877 20.2957 0.079625 0.431121 -1.035392
2010-05-27 06:36:18 51°14.613 2°54.862 20.3028 0.079625 0.431149 -1.035392
2010-05-27 06:36:24 51°14.629 2°54.842 20.3283 0.079625 0.431156 -1.035392
2010-05-27 06:36:28 51°14.639 2°54.829 20.3342 0.079625 0.431197 -1.000568
2010-05-27 06:36:33 51°14.652 2°54.812 20.3253 0.079625 0.431197 -1.035392
2010-05-27 06:36:38 51°14.665 2°54.794 20.3369 0.079625 0.431197 -1.035392
2010-05-27 06:36:43 51°14.677 2°54.775 20.2984 0.079625 0.431204 -1.000568
2010-05-27 06:36:48 51°14.69 2°54.756 20.2991 0.079625 0.431197 -1.035392
2010-05-27 06:36:53 51°14.702 2°54.735 20.1816 0.079625 0.431197 -0.965744
2010-05-27 06:36:58 51°14.714 2°54.716 20.1276 0.079625 0.431183 -1.035392
2010-05-27 06:37:03 51°14.726 2°54.698 20.1692 0.079625 0.431169 -1.000568
2010-05-27 06:37:08 51°14.739 2°54.681 20.1814 0.079625 0.431169 -1.000568
2010-05-27 06:37:13 51°14.752 2°54.664 20.2362 0.079625 0.431162 -1.000568
2010-05-27 06:37:18 51°14.766 2°54.648 20.3001 0.079625 0.431169 -1.000568
2010-05-27 06:37:23 51°14.781 2°54.633 20.3651 0.079625 0.43119 -1.000568
2010-05-27 06:37:28 51°14.794 2°54.616 20.3673 0.079625 0.431204 -1.000568
2010-05-27 06:37:33 51°14.807 2°54.598 20.3015 0.079625 0.431238 -1.035392
2010-05-27 06:37:38 51°14.82 2°54.579 20.2561 0.079625 0.431238 -1.035392
2010-05-27 06:37:43 51°14.833 2°54.559 20.1473 0.079521 0.430668 -1.000568
2010-05-27 06:37:48 51°14.846 2°54.54 20.1779 0.079521 0.430654 -1.035392
2010-05-27 06:37:53 51°14.86 2°54.522 20.1974 0.079625 0.431204 -1.035392
2010-05-27 06:37:58 51°14.874 2°54.505 20.2253 0.079625 0.431176 -1.035392
2010-05-27 06:38:03 51°14.889 2°54.489 20.2182 0.079521 0.4306 -1.000568
2010-05-27 06:38:08 51°14.903 2°54.473 20.2491 0.079521 0.4306 -1.000568
2010-05-27 06:38:13 51°14.918 2°54.457 20.2076 0.079625 0.431197 -1.035392
2010-05-27 06:38:18 51°14.933 2°54.442 20.2145 0.079625 0.431231 -1.035392
2010-05-27 06:38:23 51°14.948 2°54.428 20.2586 0.079625 0.431245 -1.000568
2010-05-27 06:38:28 51°14.963 2°54.414 20.1822 0.079521 0.430675 -1.000568
2010-05-27 06:38:33 51°14.978 2°54.401 20.2473 0.079521 0.430668 -1.000568
2010-05-27 06:38:38 51°14.993 2°54.389 20.17 0.079521 0.430668 -1.000568
2010-05-27 06:38:43 51°15.008 2°54.377 20.2249 0.079625 0.431265 -1.000568
2010-05-27 06:38:48 51°15.024 2°54.365 20.2516 0.079625 0.431251 -1.035392
2010-05-27 06:38:53 51°15.039 2°54.353 20.2726 0.079625 0.431251 -1.035392
2010-05-27 06:38:58 51°15.055 2°54.342 20.2541 0.079521 0.430675 -1.000568
2010-05-27 06:39:03 51°15.07 2°54.329 20.2508 0.079521 0.430695 -1.000568
2010-05-27 06:39:08 51°15.086 2°54.316 20.2819 0.079521 0.430695 -1.000568
2010-05-27 06:39:13 51°15.102 2°54.302 20.2832 0.079521 0.430695 -1.000568
2010-05-27 06:39:18 51°15.117 2°54.287 20.2778 0.079625 0.431299 -1.000568
2010-05-27 06:39:23 51°15.132 2°54.272 20.2648 0.079521 0.430723 -1.035392
2010-05-27 06:39:28 51°15.147 2°54.256 20.2855 0.079521 0.43073 -1.035392
2010-05-27 06:39:33 51°15.162 2°54.24 20.2759 0.079625 0.431313 -1.000568
2010-05-27 06:39:38 51°15.177 2°54.224 20.1903 0.079625 0.431313 -1.000568
2010-05-27 06:39:43 51°15.192 2°54.209 20.1796 0.079521 0.43073 -1.000568
2010-05-27 06:39:48 51°15.207 2°54.193 20.226 0.079521 0.430723 -1.035392
2010-05-27 06:39:53 51°15.223 2°54.178 20.2247 0.079521 0.430716 -1.000568
2010-05-27 06:39:58 51°15.238 2°54.162 20.2436 0.079521 0.430723 -1.035392
2010-05-27 06:40:03 51°15.253 2°54.146 20.2322 0.079521 0.430736 -0.965744
2010-05-27 06:40:08 51°15.268 2°54.129 20.1837 0.079521 0.430736 -0.965744
2010-05-27 06:40:13 51°15.282 2°54.113 20.2121 0.079521 0.430757 -1.035392
2010-05-27 06:40:18 51°15.297 2°54.096 20.2351 0.079521 0.430757 -1.035392
2010-05-27 06:40:23 51°15.312 2°54.08 20.2516 0.079521 0.430771 -1.035392
2010-05-27 06:40:28 51°15.327 2°54.063 20.2257 0.079521 0.430771 -1.035392
2010-05-27 06:40:33 51°15.342 2°54.046 20.2404 0.079521 0.430784 -0.965744
2010-05-27 06:40:38 51°15.357 2°54.029 20.2451 0.079521 0.430784 -0.965744
2010-05-27 06:40:43 51°15.371 2°54.011 20.2141 0.079521 0.430791 -1.035392
2010-05-27 06:40:48 51°15.386 2°53.994 20.2227 0.079521 0.430777 -1.000568
2010-05-27 06:40:53 51°15.4 2°53.976 20.2379 0.079521 0.430784 -1.000568
2010-05-27 06:40:58 51°15.414 2°53.958 20.2261 0.079521 0.430777 -1.000568
2010-05-27 06:41:03 51°15.429 2°53.94 20.2372 0.079521 0.430791 -1.000568
2010-05-27 06:41:08 51°15.444 2°53.923 20.1663 0.079521 0.430791 -1.000568
2010-05-27 06:41:13 51°15.458 2°53.906 20.2135 0.079521 0.430798 -1.035392
2010-05-27 06:41:18 51°15.473 2°53.888 20.2276 0.079521 0.430805 -1.035392
2010-05-27 06:41:23 51°15.487 2°53.871 20.2073 0.079521 0.430825 -1.035392
2010-05-27 06:41:28 51°15.502 2°53.853 20.2333 0.079521 0.430832 -1.035392
2010-05-27 06:41:32 51°15.513 2°53.839 20.2306 0.079521 0.430832 -1.000568
2010-05-27 06:41:38 51°15.531 2°53.818 20.2109 0.079521 0.430832 -1.000568
2010-05-27 06:41:43 51°15.545 2°53.801 20.1954 0.079521 0.430832 -1.035392
2010-05-27 06:41:48 51°15.56 2°53.783 20.2137 0.079521 0.430839 -0.965744
2010-05-27 06:41:53 51°15.574 2°53.766 20.2057 0.079521 0.430846 -1.035392
2010-05-27 06:41:57 51°15.586 2°53.752 20.2273 0.079521 0.43086 -1.035392
2010-05-27 06:42:03 51°15.603 2°53.73 20.231 0.079521 0.430866 -1.000568
2010-05-27 06:42:09 51°15.621 2°53.709 20.2273 0.079521 0.430866 -1.000568
2010-05-27 06:42:13 51°15.632 2°53.695 20.2053 0.079521 0.430873 -1.000568
2010-05-27 06:42:18 51°15.647 2°53.678 20.22 0.079521 0.43088 -1.000568
2010-05-27 06:42:24 51°15.664 2°53.657 20.2429 0.079521 0.430887 -1.000568
2010-05-27 06:42:29 51°15.679 2°53.64 20.2283 0.079521 0.430887 -1.000568
2010-05-27 06:42:33 51°15.69 2°53.625 20.1703 0.079521 0.430901 -1.035392
2010-05-27 06:42:38 51°15.705 2°53.608 20.1873 0.079521 0.430901 -1.035392
2010-05-27 06:42:43 51°15.719 2°53.59 20.2141 0.079521 0.430908 -1.000568
2010-05-27 06:42:48 51°15.734 2°53.573 20.2008 0.079521 0.430908 -1.000568
2010-05-27 06:42:53 51°15.748 2°53.555 20.2065 0.079521 0.430921 -1.035392
2010-05-27 06:42:57 51°15.76 2°53.541 20.2209 0.079521 0.430928 -1.000568
2010-05-27 06:43:03 51°15.777 2°53.52 20.2161 0.079521 0.430928 -1.000568
2010-05-27 06:43:09 51°15.795 2°53.5 20.1942 0.079521 0.430928 -1.000568
2010-05-27 06:43:13 51°15.807 2°53.487 20.216 0.079521 0.430942 -1.035392
2010-05-27 06:43:18 51°15.822 2°53.471 20.2006 0.079521 0.430942 -1.000568
2010-05-27 06:43:23 51°15.837 2°53.455 20.2004 0.079521 0.430949 -1.000568
2010-05-27 06:43:28 51°15.852 2°53.439 20.2061 0.079521 0.430969 -1.000568
2010-05-27 06:43:33 51°15.867 2°53.423 20.2301 0.079521 0.430962 -1.000568
2010-05-27 06:43:37 51°15.88 2°53.411 20.2273 0.079521 0.430962 -1.000568
2010-05-27 06:43:43 51°15.898 2°53.392 20.1771 0.079521 0.430976 -1.035392
2010-05-27 06:43:48 51°15.913 2°53.376 20.2128 0.079521 0.430983 -1.000568
2010-05-27 06:43:53 51°15.928 2°53.361 20.2124 0.079521 0.43099 -1.000568
2010-05-27 06:43:58 51°15.943 2°53.345 20.226 0.079521 0.430997 -1.035392
2010-05-27 06:44:02 51°15.955 2°53.333 20.204 0.079521 0.431003 -1.035392
2010-05-27 06:44:08 51°15.973 2°53.315 20.1872 0.079521 0.431003 -1.035392
2010-05-27 06:44:14 51°15.992 2°53.296 20.2062 0.079521 0.43101 -1.000568
2010-05-27 06:44:18 51°16.004 2°53.284 20.2034 0.079521 0.43101 -1.000568
2010-05-27 06:44:23 51°16.019 2°53.269 20.22 0.079521 0.431031 -1.035392
2010-05-27 06:44:28 51°16.034 2°53.254 20.2056 0.079521 0.431031 -1.000568
2010-05-27 06:44:34 51°16.053 2°53.237 20.2028 0.079521 0.431038 -1.035392
2010-05-27 06:44:38 51°16.065 2°53.225 20.1967 0.079521 0.431038 -1.035392
2010-05-27 06:44:43 51°16.08 2°53.211 20.1912 0.079521 0.431038 -1.000568
2010-05-27 06:44:48 51°16.096 2°53.196 20.2084 0.079521 0.431045 -1.000568
2010-05-27 06:44:53 51°16.111 2°53.182 20.2032 0.079521 0.431058 -1.035392
2010-05-27 06:44:58 51°16.127 2°53.169 20.2237 0.079521 0.431072 -1.035392
2010-05-27 06:45:03 51°16.142 2°53.154 20.2174 0.079521 0.431079 -1.035392
2010-05-27 06:45:08 51°16.157 2°53.14 20.232 0.079521 0.431079 -1.035392
2010-05-27 06:45:13 51°16.173 2°53.126 20.2175 0.079521 0.431093 -1.000568
2010-05-27 06:45:18 51°16.189 2°53.111 20.2166 0.079521 0.431106 -1.000568
2010-05-27 06:45:22 51°16.201 2°53.1 20.2156 0.079521 0.431099 -1.035392
2010-05-27 06:45:28 51°16.22 2°53.085 20.198 0.079521 0.431099 -1.035392
2010-05-27 06:45:33 51°16.236 2°53.073 20.2223 0.079521 0.431106 -1.035392
2010-05-27 06:45:38 51°16.251 2°53.062 20.221 0.079521 0.431106 -1.035392
2010-05-27 06:45:43 51°16.267 2°53.05 20.2161 0.079521 0.43112 -1.000568
2010-05-27 06:45:48 51°16.283 2°53.038 20.2358 0.079521 0.431127 -1.000568
2010-05-27 06:45:53 51°16.299 2°53.026 20.2143 0.079521 0.431154 -1.000568
2010-05-27 06:45:58 51°16.314 2°53.014 20.2166 -999 -999 -3.020363
2010-05-27 06:46:03 51°16.33 2°53.001 20.203 0.079521 0.431161 -1.035392
2010-05-27 06:46:08 51°16.346 2°52.99 20.2184 0.079521 0.431161 -1.035392
2010-05-27 06:46:13 51°16.362 2°52.977 20.2123 0.079521 0.431161 -1.035392
2010-05-27 06:46:18 51°16.378 2°52.965 20.2216 0.079521 0.431175 -1.000568
2010-05-27 06:46:23 51°16.393 2°52.952 20.2049 0.079521 0.431189 -1.000568
2010-05-27 06:46:28 51°16.409 2°52.94 20.1739 0.079521 0.431175 -1.035392
2010-05-27 06:46:34 51°16.428 2°52.924 20.2246 0.079521 0.431182 -1.000568
2010-05-27 06:46:38 51°16.44 2°52.914 20.2057 0.079521 0.431182 -1.000568
2010-05-27 06:46:43 51°16.456 2°52.902 20.2144 0.079521 0.431202 -1.035392
2010-05-27 06:46:48 51°16.472 2°52.891 20.1938 0.079417 0.430625 -1.035392
2010-05-27 06:46:53 51°16.488 2°52.878 20.2183 0.079417 0.430632 -1.035392
2010-05-27 06:46:58 51°16.503 2°52.867 20.2029 0.079521 0.431223 -1.035392
2010-05-27 06:47:03 51°16.519 2°52.854 20.186 0.079521 0.431237 -1.035392
2010-05-27 06:47:08 51°16.535 2°52.842 20.1917 0.079521 0.431237 -1.035392
2010-05-27 06:47:13 51°16.551 2°52.831 20.1904 0.079521 0.43125 -1.000568
2010-05-27 06:47:18 51°16.566 2°52.818 20.2234 0.079521 0.43125 -1.035392
2010-05-27 06:47:23 51°16.582 2°52.806 20.2024 0.079417 0.430687 -1.000568
2010-05-27 06:47:28 51°16.598 2°52.794 20.2123 0.079417 0.430694 -1.000568
2010-05-27 06:47:33 51°16.613 2°52.782 20.2165 0.079521 0.431278 -1.000568
2010-05-27 06:47:38 51°16.629 2°52.771 20.2015 0.079521 0.431278 -1.000568
2010-05-27 06:47:43 51°16.644 2°52.758 20.205 0.079417 0.4307 -1.035392
2010-05-27 06:47:48 51°16.66 2°52.746 20.1987 0.079417 0.430714 -1.035392
2010-05-27 06:47:53 51°16.676 2°52.734 20.2081 0.079417 0.430721 -1.035392
2010-05-27 06:47:58 51°16.692 2°52.723 20.2178 0.079417 0.430741 -1.070216
2010-05-27 06:48:03 51°16.707 2°52.711 20.216 0.079417 0.430735 -1.070216
2010-05-27 06:48:08 51°16.723 2°52.699 20.2305 0.079417 0.430735 -1.070216
2010-05-27 06:48:13 51°16.738 2°52.687 20.1889 0.079417 0.430748 -1.000568
2010-05-27 06:48:18 51°16.753 2°52.676 20.2101 0.079417 0.430762 -1.000568
2010-05-27 06:48:23 51°16.769 2°52.664 20.2168 0.079417 0.430769 -1.000568
2010-05-27 06:48:28 51°16.784 2°52.652 20.176 0.079417 0.430769 -1.000568
2010-05-27 06:48:34 51°16.802 2°52.638 20.1837 0.079417 0.430789 -1.035392
2010-05-27 06:48:38 51°16.815 2°52.629 20.1993 0.079417 0.430789 -1.035392
2010-05-27 06:48:43 51°16.83 2°52.617 20.178 0.079417 0.430789 -1.035392
2010-05-27 06:48:48 51°16.845 2°52.606 20.1844 0.079417 0.43081 -1.000568
2010-05-27 06:48:53 51°16.86 2°52.594 20.2106 0.079417 0.430817 -1.070216
2010-05-27 06:48:58 51°16.876 2°52.583 20.2119 0.079417 0.430824 -1.035392
2010-05-27 06:49:03 51°16.891 2°52.57 20.2192 0.079417 0.430831 -1.035392
2010-05-27 06:49:08 51°16.906 2°52.558 20.1984 0.079417 0.430831 -1.035392
2010-05-27 06:49:13 51°16.921 2°52.546 20.2275 0.079417 0.430844 -1.035392
2010-05-27 06:49:18 51°16.937 2°52.534 20.2126 0.079417 0.430858 -1.000568
2010-05-27 06:49:23 51°16.952 2°52.521 20.2093 0.079417 0.430865 -1.035392
2010-05-27 06:49:28 51°16.967 2°52.509 20.2102 0.079417 0.430865 -1.000568
2010-05-27 06:49:33 51°16.982 2°52.497 20.2099 0.079417 0.430879 -1.035392
2010-05-27 06:49:38 51°16.997 2°52.486 20.2116 0.079417 0.430879 -1.035392
2010-05-27 06:49:43 51°17.013 2°52.474 20.2041 0.079417 0.430892 -1.000568
2010-05-27 06:49:48 51°17.028 2°52.462 20.1872 0.079417 0.430906 -1.000568
2010-05-27 06:49:53 51°17.043 2°52.45 20.2102 0.079417 0.430913 -1.000568
2010-05-27 06:49:58 51°17.058 2°52.437 20.2337 0.079417 0.430927 -1.035392
2010-05-27 06:50:02 51°17.07 2°52.427 20.1741 0.079417 0.43094 -1.000568
2010-05-27 06:50:08 51°17.089 2°52.412 20.2173 0.079417 0.43094 -1.000568
2010-05-27 06:50:13 51°17.104 2°52.4 20.2077 0.079417 0.430954 -1.035392
2010-05-27 06:50:18 51°17.119 2°52.388 20.2146 0.079417 0.430947 -1.035392
2010-05-27 06:50:23 51°17.134 2°52.375 20.2234 0.079417 0.430961 -1.000568
2010-05-27 06:50:29 51°17.153 2°52.361 20.2 0.079417 0.430961 -1.035392
2010-05-27 06:50:34 51°17.168 2°52.348 20.2219 0.079417 0.430982 -1.035392
2010-05-27 06:50:38 51°17.18 2°52.338 20.235 0.079417 0.430982 -1.035392
2010-05-27 06:50:43 51°17.196 2°52.325 20.2065 0.079417 0.430988 -1.035392
2010-05-27 06:50:48 51°17.211 2°52.313 20.2223 0.079417 0.431009 -1.000568
2010-05-27 06:50:53 51°17.226 2°52.3 20.2033 0.079417 0.431009 -1.000568
2010-05-27 06:50:58 51°17.241 2°52.288 20.2143 0.079417 0.431016 -1.070216
2010-05-27 06:51:03 51°17.256 2°52.275 20.2147 0.079417 0.431023 -1.035392
2010-05-27 06:51:08 51°17.272 2°52.262 20.2239 0.079417 0.431023 -1.035392
2010-05-27 06:51:13 51°17.287 2°52.25 20.2235 0.079417 0.431036 -1.035392
2010-05-27 06:51:18 51°17.302 2°52.237 20.255 0.079417 0.43105 -1.000568
2010-05-27 06:51:23 51°17.318 2°52.223 20.2612 0.079417 0.431057 -1.070216
2010-05-27 06:51:28 51°17.332 2°52.207 20.2731 0.079417 0.431078 -1.035392
2010-05-27 06:51:33 51°17.346 2°52.19 20.2923 0.079417 0.431112 -1.000568
2010-05-27 06:51:38 51°17.358 2°52.17 20.2759 0.079417 0.431112 -1.000568
2010-05-27 06:51:43 51°17.37 2°52.148 20.2597 0.079417 0.431126 -1.035392
2010-05-27 06:51:48 51°17.38 2°52.125 20.2201 0.079417 0.431153 -1.000568
2010-05-27 06:51:53 51°17.389 2°52.101 20.1785 0.079417 0.43116 -1.035392
2010-05-27 06:51:58 51°17.399 2°52.077 20.2142 0.079417 0.431139 -1.035392
2010-05-27 06:52:03 51°17.408 2°52.053 20.1985 0.079417 0.431133 -1.000568
2010-05-27 06:52:08 51°17.417 2°52.028 20.2246 0.079417 0.431133 -1.000568
2010-05-27 06:52:13 51°17.426 2°52.002 20.2047 0.079417 0.431119 -1.035392
2010-05-27 06:52:18 51°17.434 2°51.977 20.2202 0.079417 0.431126 -1.035392
2010-05-27 06:52:23 51°17.443 2°51.952 20.1923 0.079417 0.431126 -1.000568
2010-05-27 06:52:28 51°17.452 2°51.927 20.2223 0.079417 0.431153 -1.000568
2010-05-27 06:52:33 51°17.46 2°51.902 20.2093 0.079417 0.431167 -1.000568
2010-05-27 06:52:38 51°17.469 2°51.876 20.2086 0.079417 0.431167 -1.000568
2010-05-27 06:52:43 51°17.478 2°51.851 20.2003 0.079417 0.431188 -1.000568
2010-05-27 06:52:49 51°17.488 2°51.821 20.2249 0.079417 0.431194 -1.035392
2010-05-27 06:52:54 51°17.497 2°51.795 20.1995 0.079417 0.431188 -1.000568
2010-05-27 06:52:58 51°17.504 2°51.775 20.2342 0.079417 0.431194 -1.035392
2010-05-27 06:53:03 51°17.512 2°51.749 20.2132 0.079417 0.431215 -1.035392
2010-05-27 06:53:08 51°17.521 2°51.724 20.2223 0.079417 0.431215 -1.035392
2010-05-27 06:53:13 51°17.53 2°51.699 20.2154 0.079417 0.431222 -1.000568
2010-05-27 06:53:18 51°17.539 2°51.673 20.2251 0.079417 0.431229 -1.035392
2010-05-27 06:53:22 51°17.546 2°51.653 20.2301 0.079417 0.431236 -1.000568
2010-05-27 06:53:28 51°17.556 2°51.622 20.2099 0.079313 0.430664 -1.000568
2010-05-27 06:53:33 51°17.564 2°51.597 20.2162 0.079313 0.430685 -1.035392
2010-05-27 06:53:38 51°17.573 2°51.571 20.2179 0.079313 0.430685 -1.035392
2010-05-27 06:53:43 51°17.582 2°51.546 20.2312 0.079313 0.430685 -1.035392
2010-05-27 06:53:48 51°17.59 2°51.52 20.2182 0.079313 0.430685 -1.035392
2010-05-27 06:53:53 51°17.598 2°51.495 20.1965 0.079313 0.430699 -1.000568
2010-05-27 06:53:58 51°17.607 2°51.469 20.2296 0.079313 0.430706 -1.035392
2010-05-27 06:54:03 51°17.616 2°51.443 20.2286 0.079417 0.431304 -1.035392
2010-05-27 06:54:08 51°17.625 2°51.418 20.2101 0.079417 0.431304 -1.035392
2010-05-27 06:54:13 51°17.633 2°51.393 20.2326 0.079313 0.430733 -1.035392
2010-05-27 06:54:18 51°17.642 2°51.367 20.2341 0.079313 0.430747 -1.000568
2010-05-27 06:54:22 51°17.649 2°51.347 20.2309 0.079313 0.430761 -1.035392
2010-05-27 06:54:28 51°17.66 2°51.316 20.2298 0.079313 0.430774 -1.035392
2010-05-27 06:54:33 51°17.668 2°51.291 20.2271 0.079313 0.430774 -1.035392
2010-05-27 06:54:38 51°17.677 2°51.266 20.2284 0.079313 0.430774 -1.035392
2010-05-27 06:54:43 51°17.686 2°51.24 20.222 0.079313 0.430795 -1.035392
2010-05-27 06:54:49 51°17.697 2°51.209 20.2171 0.079313 0.430802 -1.000568
2010-05-27 06:54:54 51°17.705 2°51.183 20.2296 0.079313 0.430795 -1.035392
2010-05-27 06:54:58 51°17.712 2°51.164 20.2357 0.079313 0.430809 -1.035392
2010-05-27 06:55:03 51°17.72 2°51.139 20.227 0.079313 0.430822 -1.035392
2010-05-27 06:55:08 51°17.728 2°51.114 20.2216 0.079313 0.430822 -1.035392
2010-05-27 06:55:13 51°17.736 2°51.091 20.2273 0.079313 0.430829 -1.035392
2010-05-27 06:55:18 51°17.744 2°51.069 20.2318 0.079313 0.430843 -1.000568
2010-05-27 06:55:22 51°17.75 2°51.052 20.235 0.079313 0.43085 -1.035392
2010-05-27 06:55:28 51°17.758 2°51.028 20.2558 0.079313 0.43087 -1.035392
2010-05-27 06:55:33 51°17.764 2°51.009 20.2609 0.079313 0.430884 -1.000568
2010-05-27 06:55:38 51°17.77 2°50.99 20.3106 0.079313 0.430884 -1.000568
2010-05-27 06:55:43 51°17.774 2°50.972 20.3112 0.079313 0.430898 -1.035392
2010-05-27 06:55:48 51°17.776 2°50.953 20.3091 0.079313 0.430946 -1.035392
2010-05-27 06:55:53 51°17.777 2°50.936 20.2931 0.079313 0.430967 -1.000568
2010-05-27 06:55:58 51°17.777 2°50.919 20.2852 0.079313 0.430987 -1.035392
2010-05-27 06:56:03 51°17.776 2°50.904 20.2744 0.079313 0.430994 -1.035392
2010-05-27 06:56:08 51°17.773 2°50.889 20.2858 0.079313 0.430994 -1.035392
2010-05-27 06:56:13 51°17.771 2°50.874 20.2911 0.079313 0.430994 -1.000568
2010-05-27 06:56:18 51°17.767 2°50.861 20.2947 0.079313 0.430987 -1.000568
2010-05-27 06:56:23 51°17.764 2°50.848 20.2774 0.079313 0.430987 -1.035392
2010-05-27 06:56:28 51°17.759 2°50.836 20.2988 0.079313 0.430987 -1.000568
2010-05-27 06:56:33 51°17.753 2°50.825 20.3007 0.079313 0.431001 -1.035392
2010-05-27 06:56:38 51°17.747 2°50.815 20.2904 0.079313 0.431001 -1.035392
2010-05-27 06:56:43 51°17.741 2°50.806 20.3008 0.079313 0.431008 -1.000568
2010-05-27 06:56:48 51°17.734 2°50.798 20.3046 0.079313 0.431029 -1.000568
2010-05-27 06:56:53 51°17.726 2°50.791 20.2897 0.079313 0.431042 -1.035392
2010-05-27 06:56:58 51°17.719 2°50.786 20.2704 0.079313 0.431049 -1.035392
2010-05-27 06:57:03 51°17.712 2°50.781 20.2849 0.079313 0.431049 -1.000568
2010-05-27 06:57:08 51°17.704 2°50.778 20.2932 0.079313 0.431049 -1.000568
2010-05-27 06:57:13 51°17.697 2°50.775 20.2855 0.079313 0.431042 -1.035392
2010-05-27 06:57:18 51°17.69 2°50.773 20.297 0.079313 0.431029 -1.000568
2010-05-27 06:57:23 51°17.683 2°50.772 20.2829 0.079313 0.431035 -1.000568
2010-05-27 06:57:28 51°17.676 2°50.773 20.2976 0.079313 0.431042 -1.035392
2010-05-27 06:57:33 51°17.669 2°50.774 20.2859 0.079313 0.431056 -1.035392
2010-05-27 06:57:38 51°17.662 2°50.776 20.2982 0.079313 0.431056 -1.035392
2010-05-27 06:57:43 51°17.656 2°50.779 20.3038 0.079313 0.431056 -1.035392
2010-05-27 06:57:48 51°17.65 2°50.782 20.2991 0.079313 0.43109 -1.000568
2010-05-27 06:57:53 51°17.645 2°50.787 20.3022 0.079313 0.431104 -1.035392
2010-05-27 06:57:58 51°17.639 2°50.792 20.2979 0.079313 0.431111 -1.000568
2010-05-27 06:58:03 51°17.635 2°50.798 20.3061 0.079313 0.431118 -1.000568
2010-05-27 06:58:08 51°17.631 2°50.804 20.2901 0.079313 0.431118 -1.000568
2010-05-27 06:58:13 51°17.628 2°50.811 20.2822 0.079313 0.431132 -1.035392
2010-05-27 06:58:18 51°17.625 2°50.817 20.2839 0.079313 0.431132 -1.000568
2010-05-27 06:58:23 51°17.623 2°50.822 20.2704 0.079313 0.431139 -1.035392
2010-05-27 06:58:28 51°17.621 2°50.828 20.2926 0.079313 0.431132 -1.035392
2010-05-27 06:58:33 51°17.62 2°50.833 20.2779 0.079313 0.431132 -1.035392
2010-05-27 06:58:38 51°17.618 2°50.837 20.2834 0.079313 0.431132 -1.035392
2010-05-27 06:58:43 51°17.617 2°50.842 20.2758 0.079313 0.431132 -1.035392
2010-05-27 06:58:48 51°17.616 2°50.846 20.2682 0.079313 0.431139 -1.035392
2010-05-27 06:58:53 51°17.615 2°50.849 20.2829 0.079313 0.431146 -1.035392
2010-05-27 06:58:58 51°17.613 2°50.853 20.287 0.079313 0.431139 -1.000568
2010-05-27 06:59:03 51°17.613 2°50.855 20.286 0.079313 0.431159 -1.035392
2010-05-27 06:59:08 51°17.611 2°50.857 20.2762 0.079313 0.431159 -1.035392
2010-05-27 06:59:13 51°17.61 2°50.858 20.2879 0.079313 0.43118 -1.035392
2010-05-27 06:59:18 51°17.609 2°50.86 20.2865 0.079313 0.431194 -1.000568
2010-05-27 06:59:23 51°17.608 2°50.861 20.284 0.079208 0.430622 -1.035392
2010-05-27 06:59:28 51°17.607 2°50.862 20.2646 0.079313 0.431214 -1.000568
2010-05-27 06:59:33 51°17.607 2°50.862 20.2928 0.079208 0.430642 -1.035392
2010-05-27 06:59:38 51°17.605 2°50.863 20.2808 0.079208 0.430642 -1.035392
2010-05-27 06:59:43 51°17.604 2°50.863 20.2939 0.079208 0.430649 -1.035392
2010-05-27 06:59:48 51°17.603 2°50.864 20.2617 0.079208 0.430649 -1.000568
2010-05-27 06:59:54 51°17.602 2°50.863 20.2912 0.079208 0.43067 -1.035392
2010-05-27 06:59:58 51°17.601 2°50.863 20.2691 0.079208 0.430663 -1.000568
2010-05-27 07:00:03 51°17.6 2°50.863 20.2759 0.079208 0.43067 -1.035392
2010-05-27 07:00:08 51°17.598 2°50.862 20.2893 0.079208 0.43067 -1.035392
2010-05-27 07:00:14 51°17.597 2°50.861 20.2896 0.079208 0.430677 -1.035392
2010-05-27 07:00:18 51°17.596 2°50.861 20.2829 0.079208 0.430684 -1.000568
2010-05-27 07:00:23 51°17.595 2°50.86 20.2913 0.079208 0.430704 -1.000568
2010-05-27 07:00:28 51°17.593 2°50.859 20.2913 0.079208 0.430711 -1.035392
2010-05-27 07:00:33 51°17.592 2°50.859 20.2836 0.079208 0.430718 -1.000568
2010-05-27 07:00:38 51°17.591 2°50.858 20.3085 0.079208 0.430718 -1.000568
2010-05-27 07:00:44 51°17.589 2°50.858 20.2759 0.079208 0.430725 -1.000568
2010-05-27 07:00:48 51°17.589 2°50.857 20.2957 0.079208 0.430746 -1.035392
2010-05-27 07:00:53 51°17.587 2°50.856 20.2841 0.079208 0.430739 -1.035392
2010-05-27 07:00:58 51°17.586 2°50.855 20.2974 0.079208 0.430759 -1.000568
2010-05-27 07:01:03 51°17.585 2°50.855 20.2778 0.079208 0.430766 -1.035392
2010-05-27 07:01:08 51°17.584 2°50.854 20.2926 0.079208 0.430766 -1.035392
2010-05-27 07:01:13 51°17.582 2°50.853 20.2791 0.079208 0.430766 -1.000568
2010-05-27 07:01:18 51°17.582 2°50.852 20.2891 0.079208 0.43078 -1.035392
2010-05-27 07:01:23 51°17.58 2°50.852 20.2766 0.079208 0.430773 -1.035392
2010-05-27 07:01:28 51°17.579 2°50.85 20.2917 0.079208 0.430787 -1.035392
2010-05-27 07:01:34 51°17.577 2°50.85 20.2738 0.079208 0.430787 -1.000568
2010-05-27 07:01:38 51°17.577 2°50.848 20.2994 0.079208 0.430787 -1.000568
2010-05-27 07:01:42 51°17.576 2°50.849 20.2909 0.079208 0.430794 -1.000568
2010-05-27 07:01:48 51°17.575 2°50.848 20.3009 0.079208 0.430821 -1.000568
2010-05-27 07:01:54 51°17.575 2°50.848 20.2997 0.079208 0.430814 -1.000568
2010-05-27 07:01:58 51°17.575 2°50.847 20.3112 0.079208 0.430828 -1.035392
2010-05-27 07:02:03 51°17.574 2°50.847 20.2963 0.079208 0.430835 -1.035392
2010-05-27 07:02:08 51°17.575 2°50.847 20.3016 0.079208 0.430835 -1.035392
2010-05-27 07:02:14 51°17.575 2°50.847 20.2961 0.079208 0.430835 -1.035392
2010-05-27 07:02:18 51°17.575 2°50.846 20.3037 0.079208 0.430842 -1.035392
2010-05-27 07:02:23 51°17.576 2°50.846 20.2875 0.079208 0.430828 -1.000568
2010-05-27 07:02:28 51°17.576 2°50.846 20.3006 0.079208 0.430842 -1.000568
2010-05-27 07:02:33 51°17.577 2°50.846 20.2948 0.079208 0.430842 -1.000568
2010-05-27 07:02:38 51°17.577 2°50.846 20.2992 0.079208 0.430842 -1.000568
2010-05-27 07:02:42 51°17.577 2°50.845 20.3004 0.079208 0.430849 -1.000568
2010-05-27 07:02:48 51°17.577 2°50.845 20.2986 0.079208 0.430856 -1.035392
2010-05-27 07:02:53 51°17.577 2°50.845 20.3029 0.079209 0.430869 -1.035392
2010-05-27 07:02:58 51°17.577 2°50.844 20.3024 0.079209 0.430876 -1.000568
2010-05-27 07:03:03 51°17.578 2°50.844 20.3012 0.079209 0.430876 -1.000568
2010-05-27 07:03:08 51°17.578 2°50.843 20.3081 0.079209 0.430876 -1.000568
2010-05-27 07:03:13 51°17.578 2°50.843 20.3068 0.079209 0.43089 -1.035392
2010-05-27 07:03:18 51°17.578 2°50.842 20.3048 0.079209 0.430897 -1.035392
2010-05-27 07:03:23 51°17.578 2°50.842 20.3025 0.079209 0.430897 -1.000568
2010-05-27 07:03:28 51°17.578 2°50.841 20.3132 0.079209 0.430904 -1.000568
2010-05-27 07:03:33 51°17.578 2°50.841 20.3026 0.079209 0.430918 -1.070216
2010-05-27 07:03:38 51°17.578 2°50.841 20.3169 0.079209 0.430918 -1.070216
2010-05-27 07:03:42 51°17.578 2°50.841 20.3138 0.079209 0.430904 -1.000568
2010-05-27 07:03:48 51°17.578 2°50.84 20.3139 0.079209 0.430925 -1.035392
2010-05-27 07:03:53 51°17.578 2°50.84 20.2984 0.079209 0.430918 -0.965744
2010-05-27 07:03:58 51°17.578 2°50.84 20.3098 0.079209 0.430931 -1.070216
2010-05-27 07:04:03 51°17.578 2°50.839 20.2796 0.079209 0.430938 -1.035392
2010-05-27 07:04:08 51°17.579 2°50.839 20.3004 0.079209 0.430938 -1.035392
2010-05-27 07:04:14 51°17.579 2°50.839 20.281 0.079209 0.430931 -1.035392
2010-05-27 07:04:18 51°17.579 2°50.838 20.3014 0.079209 0.430931 -1.000568
2010-05-27 07:04:23 51°17.579 2°50.839 20.2731 0.079209 0.430931 -1.035392
2010-05-27 07:04:28 51°17.579 2°50.839 20.2972 0.079209 0.430959 -1.035392
2010-05-27 07:04:34 51°17.579 2°50.839 20.2944 0.079209 0.430966 -1.000568
2010-05-27 07:04:38 51°17.579 2°50.839 20.3035 0.079209 0.430966 -1.000568
2010-05-27 07:04:42 51°17.579 2°50.839 20.3064 0.079209 0.430959 -1.035392
2010-05-27 07:04:48 51°17.579 2°50.839 20.311 0.079209 0.430973 -1.035392
2010-05-27 07:04:53 51°17.579 2°50.839 20.293 0.079209 0.430966 -1.000568
2010-05-27 07:04:58 51°17.579 2°50.84 20.3058 0.079209 0.430966 -1.035392
2010-05-27 07:05:03 51°17.579 2°50.84 20.3113 0.079209 0.430993 -1.035392
2010-05-27 07:05:08 51°17.579 2°50.84 20.2946 0.079209 0.430993 -1.035392
2010-05-27 07:05:13 51°17.579 2°50.84 20.3011 0.079209 0.430986 -1.000568
2010-05-27 07:05:18 51°17.578 2°50.84 20.3115 0.079209 0.43098 -1.000568
2010-05-27 07:05:23 51°17.578 2°50.84 20.3091 0.079209 0.430993 -1.000568
2010-05-27 07:05:28 51°17.578 2°50.84 20.292 0.079209 0.430993 -1.035392
2010-05-27 07:05:33 51°17.578 2°50.84 20.3125 0.079209 0.431 -1.000568
2010-05-27 07:05:38 51°17.578 2°50.84 20.3116 0.079209 0.431 -1.000568
2010-05-27 07:05:44 51°17.578 2°50.841 20.3129 0.079209 0.431007 -1.035392
2010-05-27 07:05:49 51°17.578 2°50.841 20.316 0.079209 0.431014 -1.035392
2010-05-27 07:05:54 51°17.577 2°50.842 20.3108 0.079209 0.431014 -1.000568
2010-05-27 07:05:58 51°17.578 2°50.841 20.3185 0.079104 0.430442 -1.000568
2010-05-27 07:06:03 51°17.577 2°50.842 20.309 0.079209 0.431042 -1.035392
2010-05-27 07:06:08 51°17.577 2°50.842 20.3078 0.079209 0.431042 -1.035392
2010-05-27 07:06:13 51°17.577 2°50.842 20.3098 0.079104 0.430442 -1.035392
2010-05-27 07:06:18 51°17.577 2°50.842 20.3174 0.079209 0.431028 -1.035392
2010-05-27 07:06:23 51°17.577 2°50.843 20.3115 0.079104 0.430455 -1.035392
2010-05-27 07:06:28 51°17.577 2°50.843 20.3081 0.079104 0.430462 -1.000568
2010-05-27 07:06:33 51°17.577 2°50.843 20.3212 0.079209 0.431055 -1.035392
2010-05-27 07:06:38 51°17.577 2°50.843 20.3132 0.079209 0.431055 -1.035392
2010-05-27 07:06:43 51°17.577 2°50.843 20.3215 0.079104 0.43049 -1.035392
2010-05-27 07:06:48 51°17.577 2°50.843 20.3131 0.079104 0.430476 -1.035392
2010-05-27 07:06:53 51°17.577 2°50.843 20.3078 0.079104 0.430483 -1.000568
2010-05-27 07:06:58 51°17.577 2°50.843 20.307 0.079104 0.430497 -0.965744
2010-05-27 07:07:03 51°17.577 2°50.843 20.3252 0.079104 0.43049 -1.000568
2010-05-27 07:07:08 51°17.577 2°50.843 20.3193 0.079104 0.43049 -1.000568
2010-05-27 07:07:13 51°17.577 2°50.843 20.3289 0.079104 0.430497 -1.035392
2010-05-27 07:07:18 51°17.577 2°50.843 20.3025 0.079104 0.430497 -1.035392
2010-05-27 07:07:23 51°17.577 2°50.843 20.3219 0.079104 0.43051 -1.035392
2010-05-27 07:07:28 51°17.577 2°50.843 20.3144 0.079104 0.430517 -1.000568
2010-05-27 07:07:33 51°17.577 2°50.842 20.33 0.079104 0.43051 -1.035392
2010-05-27 07:07:38 51°17.577 2°50.842 20.3219 0.079104 0.43051 -1.035392
2010-05-27 07:07:43 51°17.577 2°50.842 20.3327 0.079104 0.43051 -1.000568
2010-05-27 07:07:48 51°17.577 2°50.842 20.3183 0.079104 0.430517 -1.035392
2010-05-27 07:07:53 51°17.577 2°50.842 20.3327 0.079104 0.430538 -1.035392
2010-05-27 07:07:58 51°17.578 2°50.841 20.3371 0.079104 0.430531 -1.000568
2010-05-27 07:08:03 51°17.578 2°50.841 20.3377 0.079104 0.430538 -1.000568
2010-05-27 07:08:08 51°17.578 2°50.841 20.3428 0.079104 0.430538 -1.000568
2010-05-27 07:08:13 51°17.578 2°50.841 20.3394 0.079104 0.430545 -1.035392
2010-05-27 07:08:18 51°17.578 2°50.841 20.3386 0.079104 0.430545 -1.035392
2010-05-27 07:08:23 51°17.578 2°50.841 20.3482 0.079104 0.430545 -1.035392
2010-05-27 07:08:28 51°17.578 2°50.841 20.3478 0.079104 0.430559 -1.035392
2010-05-27 07:08:34 51°17.578 2°50.841 20.3265 0.079104 0.430552 -1.000568
2010-05-27 07:08:38 51°17.578 2°50.84 20.3416 0.079104 0.430552 -1.000568
2010-05-27 07:08:43 51°17.578 2°50.841 20.3231 0.079104 0.430559 -1.035392
2010-05-27 07:08:48 51°17.578 2°50.84 20.3333 0.079104 0.430572 -1.035392
2010-05-27 07:08:54 51°17.578 2°50.841 20.3417 0.079104 0.430572 -1.035392
2010-05-27 07:08:58 51°17.579 2°50.84 20.3441 0.079104 0.430586 -1.000568
2010-05-27 07:09:03 51°17.578 2°50.841 20.3396 0.079104 0.430579 -1.035392
2010-05-27 07:09:08 51°17.579 2°50.84 20.3395 0.079104 0.430579 -1.035392
2010-05-27 07:09:13 51°17.579 2°50.84 20.3479 0.079104 0.430586 -1.035392
2010-05-27 07:09:18 51°17.578 2°50.84 20.3477 0.079104 0.430593 -1.035392
2010-05-27 07:09:23 51°17.579 2°50.84 20.3612 0.079104 0.4306 -1.070216
2010-05-27 07:09:28 51°17.578 2°50.84 20.3416 0.079104 0.4306 -1.000568
2010-05-27 07:09:33 51°17.578 2°50.84 20.3575 0.079104 0.4306 -1.000568
2010-05-27 07:09:38 51°17.578 2°50.84 20.3477 0.079104 0.4306 -1.000568
2010-05-27 07:09:43 51°17.578 2°50.84 20.3579 0.079104 0.430621 -1.035392
2010-05-27 07:09:48 51°17.578 2°50.84 20.3458 0.079104 0.430621 -1.035392
2010-05-27 07:09:53 51°17.579 2°50.839 20.357 0.079104 0.430627 -1.035392
2010-05-27 07:09:58 51°17.578 2°50.84 20.3348 0.079104 0.430627 -1.000568
2010-05-27 07:10:03 51°17.579 2°50.84 20.3501 0.079104 0.430627 -1.035392
2010-05-27 07:10:08 51°17.579 2°50.839 20.3471 0.079104 0.430627 -1.035392
2010-05-27 07:10:13 51°17.579 2°50.839 20.3557 0.079104 0.430634 -1.000568
2010-05-27 07:10:18 51°17.579 2°50.839 20.3565 0.079104 0.430634 -1.070216
2010-05-27 07:10:23 51°17.579 2°50.839 20.3621 0.079104 0.430641 -1.000568
2010-05-27 07:10:28 51°17.579 2°50.839 20.3671 0.079104 0.430648 -1.000568
2010-05-27 07:10:33 51°17.579 2°50.839 20.366 0.079104 0.430655 -1.035392
2010-05-27 07:10:38 51°17.579 2°50.84 20.3633 0.079104 0.430655 -1.035392
2010-05-27 07:10:43 51°17.579 2°50.84 20.3614 0.079104 0.430669 -1.000568
2010-05-27 07:10:48 51°17.578 2°50.84 20.3675 0.079104 0.430669 -1.000568
2010-05-27 07:10:53 51°17.578 2°50.84 20.362 0.079104 0.430669 -1.035392
2010-05-27 07:10:58 51°17.578 2°50.84 20.3431 0.079104 0.430669 -1.000568
2010-05-27 07:11:03 51°17.578 2°50.84 20.3531 0.079104 0.430683 -1.000568
2010-05-27 07:11:08 51°17.578 2°50.84 20.3596 0.079104 0.430683 -1.000568
2010-05-27 07:11:13 51°17.578 2°50.84 20.3589 0.079104 0.430683 -1.035392
2010-05-27 07:11:18 51°17.578 2°50.84 20.3567 0.079104 0.430689 -1.035392
2010-05-27 07:11:23 51°17.578 2°50.84 20.3684 0.079104 0.430703 -1.035392
2010-05-27 07:11:28 51°17.578 2°50.841 20.3667 0.079104 0.430696 -1.000568
2010-05-27 07:11:33 51°17.578 2°50.841 20.364 0.079104 0.430696 -1.035392
2010-05-27 07:11:38 51°17.578 2°50.841 20.3721 0.079104 0.430696 -1.035392
2010-05-27 07:11:43 51°17.578 2°50.84 20.3772 0.079104 0.430703 -1.035392
2010-05-27 07:11:48 51°17.578 2°50.841 20.373 0.079104 0.43071 -1.035392
2010-05-27 07:11:53 51°17.578 2°50.84 20.3679 0.079104 0.430724 -1.000568
2010-05-27 07:11:58 51°17.578 2°50.841 20.3691 0.079104 0.43071 -1.000568
2010-05-27 07:12:03 51°17.578 2°50.84 20.3727 0.079104 0.430724 -1.000568
2010-05-27 07:12:08 51°17.578 2°50.841 20.3688 0.079104 0.430724 -1.000568
2010-05-27 07:12:13 51°17.578 2°50.84 20.3802 0.079104 0.430724 -1.035392
2010-05-27 07:12:18 51°17.578 2°50.841 20.3807 0.079104 0.430738 -1.035392
2010-05-27 07:12:23 51°17.578 2°50.841 20.3814 0.079104 0.430738 -1.035392
2010-05-27 07:12:28 51°17.578 2°50.841 20.3796 0.079104 0.430731 -1.000568
2010-05-27 07:12:33 51°17.578 2°50.84 20.3787 0.079104 0.430738 -1.035392
2010-05-27 07:12:38 51°17.578 2°50.84 20.3871 0.079104 0.430738 -1.035392
2010-05-27 07:12:43 51°17.578 2°50.84 20.3732 0.079104 0.430751 -1.035392
2010-05-27 07:12:48 51°17.578 2°50.841 20.3705 0.079104 0.430751 -1.035392
2010-05-27 07:12:53 51°17.578 2°50.841 20.3559 0.079104 0.430758 -1.000568
2010-05-27 07:12:58 51°17.578 2°50.84 20.3815 0.079104 0.430765 -1.000568
2010-05-27 07:13:03 51°17.578 2°50.841 20.3776 0.079104 0.430772 -1.000568
2010-05-27 07:13:08 51°17.578 2°50.84 20.3865 0.079104 0.430772 -1.000568
2010-05-27 07:13:13 51°17.578 2°50.84 20.3896 0.079104 0.430765 -1.000568
2010-05-27 07:13:18 51°17.578 2°50.84 20.3921 0.079104 0.430772 -1.035392
2010-05-27 07:13:23 51°17.578 2°50.84 20.3877 0.079104 0.430758 -1.000568
2010-05-27 07:13:28 51°17.579 2°50.84 20.3817 0.079104 0.430779 -0.965744
2010-05-27 07:13:33 51°17.578 2°50.841 20.3709 0.079104 0.430779 -1.000568
2010-05-27 07:13:38 51°17.579 2°50.84 20.4012 0.079104 0.430779 -1.000568
2010-05-27 07:13:43 51°17.578 2°50.84 20.3815 0.079104 0.430779 -1.035392
2010-05-27 07:13:48 51°17.579 2°50.84 20.3946 0.079104 0.430807 -1.035392
2010-05-27 07:13:53 51°17.578 2°50.841 20.386 0.079104 0.430793 -1.000568
2010-05-27 07:13:58 51°17.579 2°50.84 20.4024 0.079104 0.430807 -1.000568
2010-05-27 07:14:03 51°17.578 2°50.84 20.3922 0.079104 0.4308 -1.000568
2010-05-27 07:14:08 51°17.579 2°50.84 20.3947 0.079104 0.4308 -1.000568
2010-05-27 07:14:13 51°17.579 2°50.84 20.391 0.079104 0.4308 -1.035392
2010-05-27 07:14:18 51°17.579 2°50.84 20.4037 0.079104 0.430813 -1.000568
2010-05-27 07:14:23 51°17.579 2°50.84 20.4042 0.079104 0.430807 -1.000568
2010-05-27 07:14:28 51°17.579 2°50.84 20.3978 0.079104 0.430813 -1.035392
2010-05-27 07:14:33 51°17.579 2°50.84 20.3926 0.079104 0.430813 -1.000568
2010-05-27 07:14:38 51°17.579 2°50.84 20.3943 0.079104 0.430813 -1.000568
2010-05-27 07:14:43 51°17.579 2°50.84 20.38 0.079104 0.43082 -1.035392
2010-05-27 07:14:48 51°17.579 2°50.84 20.3988 0.079104 0.430834 -1.035392
2010-05-27 07:14:53 51°17.579 2°50.839 20.4082 0.079 0.430254 -0.965744
2010-05-27 07:14:58 51°17.579 2°50.839 20.4022 0.079104 0.430827 -1.035392
2010-05-27 07:15:03 51°17.579 2°50.839 20.4121 0.079104 0.430848 -1.035392
2010-05-27 07:15:09 51°17.579 2°50.839 20.409 0.079104 0.430848 -1.035392
2010-05-27 07:15:14 51°17.579 2°50.839 20.4008 0.079104 0.430862 -1.070216
2010-05-27 07:15:18 51°17.579 2°50.839 20.4094 0.079104 0.430862 -1.000568
2010-05-27 07:15:23 51°17.579 2°50.839 20.4079 0.079104 0.430855 -1.035392
2010-05-27 07:15:28 51°17.579 2°50.839 20.3851 0.079104 0.430862 -1.000568
2010-05-27 07:15:33 51°17.579 2°50.84 20.4014 0.079104 0.430855 -1.035392
2010-05-27 07:15:38 51°17.579 2°50.839 20.4167 0.079104 0.430855 -1.035392
2010-05-27 07:15:43 51°17.578 2°50.84 20.4008 0.079 0.430289 -1.035392
2010-05-27 07:15:48 51°17.578 2°50.839 20.4121 0.079104 0.430876 -1.000568
2010-05-27 07:15:53 51°17.578 2°50.84 20.4131 0.079 0.430289 -1.035392
2010-05-27 07:15:58 51°17.578 2°50.84 20.4061 0.079104 0.430882 -1.035392
2010-05-27 07:16:03 51°17.578 2°50.84 20.4106 0.079 0.430296 -1.000568
2010-05-27 07:16:08 51°17.578 2°50.84 20.4064 0.079 0.430296 -1.000568
2010-05-27 07:16:13 51°17.578 2°50.841 20.4167 0.079104 0.430903 -1.035392
2010-05-27 07:16:18 51°17.578 2°50.84 20.4085 0.079104 0.430903 -1.000568
2010-05-27 07:16:22 51°17.578 2°50.841 20.4117 0.079 0.430323 -1.035392
2010-05-27 07:16:28 51°17.578 2°50.84 20.4078 0.079104 0.43091 -1.035392
2010-05-27 07:16:33 51°17.578 2°50.84 20.419 0.079 0.43033 -1.035392
2010-05-27 07:16:38 51°17.578 2°50.841 20.407 0.079 0.43033 -1.035392
2010-05-27 07:16:43 51°17.578 2°50.841 20.4268 0.079 0.430337 -1.070216
2010-05-27 07:16:48 51°17.578 2°50.841 20.4136 0.079 0.430323 -1.000568
2010-05-27 07:16:54 51°17.578 2°50.841 20.4227 0.079 0.430337 -1.000568
2010-05-27 07:16:58 51°17.578 2°50.841 20.4026 0.079104 0.430938 -1.035392
2010-05-27 07:17:03 51°17.578 2°50.841 20.4202 0.079 0.430344 -1.035392
2010-05-27 07:17:08 51°17.578 2°50.84 20.4179 0.079 0.430344 -1.035392
2010-05-27 07:17:13 51°17.579 2°50.84 20.4298 0.079 0.430358 -1.000568
2010-05-27 07:17:18 51°17.579 2°50.84 20.4113 0.079 0.430351 -1.000568
2010-05-27 07:17:23 51°17.579 2°50.84 20.4139 0.079 0.430351 -1.035392
2010-05-27 07:17:28 51°17.579 2°50.84 20.4268 0.079 0.430358 -1.035392
2010-05-27 07:17:33 51°17.579 2°50.84 20.4113 0.079 0.430365 -1.035392
2010-05-27 07:17:38 51°17.579 2°50.84 20.4235 0.079 0.430365 -1.035392
2010-05-27 07:17:42 51°17.579 2°50.839 20.4257 0.079 0.430358 -1.035392
2010-05-27 07:17:48 51°17.579 2°50.84 20.413 0.079 0.430371 -1.035392
2010-05-27 07:17:53 51°17.579 2°50.839 20.4234 0.079 0.430378 -1.035392
2010-05-27 07:17:58 51°17.579 2°50.839 20.4192 0.079 0.430378 -1.000568
2010-05-27 07:18:03 51°17.58 2°50.839 20.4321 0.079 0.430385 -1.035392
2010-05-27 07:18:08 51°17.58 2°50.839 20.4164 0.079 0.430385 -1.035392
2010-05-27 07:18:13 51°17.58 2°50.839 20.4219 0.079 0.430392 -1.000568
2010-05-27 07:18:18 51°17.58 2°50.839 20.4094 0.079 0.430392 -1.035392
2010-05-27 07:18:23 51°17.58 2°50.839 20.4326 0.079 0.430406 -1.035392
2010-05-27 07:18:28 51°17.58 2°50.839 20.4312 0.079 0.430406 -1.035392
2010-05-27 07:18:33 51°17.58 2°50.838 20.4335 0.079 0.430406 -1.000568
2010-05-27 07:18:38 51°17.58 2°50.839 20.4184 0.079 0.430406 -1.000568
2010-05-27 07:18:43 51°17.58 2°50.838 20.4264 0.079 0.430413 -1.000568
2010-05-27 07:18:48 51°17.58 2°50.838 20.4114 0.079 0.43042 -1.000568
2010-05-27 07:18:53 51°17.58 2°50.838 20.4151 0.079 0.43042 -1.000568
2010-05-27 07:18:58 51°17.58 2°50.838 20.425 0.079 0.43044 -1.000568
2010-05-27 07:19:03 51°17.58 2°50.838 20.4389 0.079 0.430433 -1.035392
2010-05-27 07:19:08 51°17.58 2°50.838 20.439 0.079 0.430433 -1.035392
2010-05-27 07:19:13 51°17.58 2°50.838 20.4276 0.079 0.43044 -1.035392
2010-05-27 07:19:18 51°17.58 2°50.838 20.4402 0.079 0.430454 -1.000568
2010-05-27 07:19:23 51°17.58 2°50.838 20.4399 0.079 0.430447 -1.035392
2010-05-27 07:19:28 51°17.58 2°50.838 20.4421 0.079 0.430447 -1.000568
2010-05-27 07:19:34 51°17.579 2°50.838 20.4353 0.079 0.430454 -1.000568
2010-05-27 07:19:38 51°17.58 2°50.838 20.4442 0.079 0.430454 -1.000568
2010-05-27 07:19:43 51°17.579 2°50.839 20.4422 0.079 0.430468 -1.000568
2010-05-27 07:19:48 51°17.579 2°50.838 20.4492 0.079 0.430475 -1.035392
2010-05-27 07:19:53 51°17.579 2°50.839 20.4387 0.079 0.430475 -1.035392
2010-05-27 07:19:58 51°17.579 2°50.838 20.4481 0.079 0.430489 -1.000568
2010-05-27 07:20:03 51°17.579 2°50.839 20.4283 0.079 0.430489 -1.000568
2010-05-27 07:20:08 51°17.579 2°50.839 20.4576 0.079 0.430489 -1.000568
2010-05-27 07:20:13 51°17.579 2°50.839 20.4504 0.079 0.430482 -1.000568
2010-05-27 07:20:18 51°17.579 2°50.839 20.4478 0.079 0.430495 -1.035392
2010-05-27 07:20:23 51°17.579 2°50.839 20.4489 0.079 0.430502 -1.035392
2010-05-27 07:20:28 51°17.579 2°50.839 20.4637 0.079 0.430495 -1.000568
2010-05-27 07:20:33 51°17.578 2°50.84 20.4409 0.079 0.430509 -1.000568
2010-05-27 07:20:38 51°17.578 2°50.84 20.4408 0.079 0.430509 -1.000568
2010-05-27 07:20:43 51°17.578 2°50.84 20.4521 0.079 0.430495 -1.000568
2010-05-27 07:20:48 51°17.578 2°50.84 20.4616 0.079 0.430509 -1.000568
2010-05-27 07:20:53 51°17.578 2°50.84 20.4544 0.079 0.430516 -1.035392
2010-05-27 07:20:58 51°17.578 2°50.841 20.4509 0.079 0.430516 -1.000568
2010-05-27 07:21:03 51°17.578 2°50.841 20.4461 0.079 0.430516 -1.000568
2010-05-27 07:21:08 51°17.578 2°50.841 20.4542 0.079 0.430516 -1.000568
2010-05-27 07:21:13 51°17.578 2°50.841 20.4589 0.079 0.43053 -1.035392
2010-05-27 07:21:18 51°17.578 2°50.841 20.4598 0.079 0.43053 -1.035392
2010-05-27 07:21:23 51°17.578 2°50.842 20.4513 0.079 0.430537 -1.035392
2010-05-27 07:21:28 51°17.578 2°50.842 20.4595 0.079 0.430544 -1.035392
2010-05-27 07:21:33 51°17.577 2°50.842 20.4635 0.079 0.430551 -0.965744
2010-05-27 07:21:38 51°17.577 2°50.842 20.4604 0.079 0.430551 -0.965744
2010-05-27 07:21:43 51°17.577 2°50.842 20.4602 0.079 0.430551 -1.035392
2010-05-27 07:21:48 51°17.577 2°50.842 20.464 0.079 0.430558 -1.035392
2010-05-27 07:21:53 51°17.577 2°50.843 20.4653 0.079 0.430558 -1.000568
2010-05-27 07:21:58 51°17.577 2°50.842 20.4652 0.079 0.430571 -1.000568
2010-05-27 07:22:03 51°17.577 2°50.843 20.4601 0.079 0.430564 -1.000568
2010-05-27 07:22:08 51°17.578 2°50.842 20.4733 0.079 0.430564 -1.000568
2010-05-27 07:22:13 51°17.577 2°50.843 20.4565 0.079 0.430571 -1.035392
2010-05-27 07:22:18 51°17.577 2°50.842 20.4648 0.079 0.430592 -1.035392
2010-05-27 07:22:23 51°17.577 2°50.843 20.4651 0.079 0.430585 -1.000568
2010-05-27 07:22:28 51°17.577 2°50.843 20.4742 0.079 0.430592 -1.000568
2010-05-27 07:22:33 51°17.577 2°50.843 20.4643 0.079 0.430599 -1.035392
2010-05-27 07:22:38 51°17.577 2°50.842 20.4722 0.079 0.430599 -1.035392
2010-05-27 07:22:43 51°17.577 2°50.843 20.4662 0.079 0.430599 -1.035392
2010-05-27 07:22:48 51°17.577 2°50.843 20.4763 0.079 0.430606 -1.000568
2010-05-27 07:22:53 51°17.577 2°50.843 20.4793 0.079 0.430606 -1.000568
2010-05-27 07:22:58 51°17.577 2°50.843 20.4821 0.079 0.430606 -1.035392
2010-05-27 07:23:03 51°17.577 2°50.843 20.4774 0.079 0.430613 -1.035392
2010-05-27 07:23:08 51°17.577 2°50.843 20.4778 0.079 0.430613 -1.035392
2010-05-27 07:23:13 51°17.577 2°50.843 20.478 0.079 0.430613 -1.035392
2010-05-27 07:23:18 51°17.577 2°50.843 20.4843 0.079 0.430626 -1.000568
2010-05-27 07:23:23 51°17.577 2°50.843 20.4742 0.079 0.430626 -1.000568
2010-05-27 07:23:28 51°17.577 2°50.843 20.483 0.079 0.430633 -1.035392
2010-05-27 07:23:33 51°17.577 2°50.842 20.4835 0.079 0.43064 -1.035392
2010-05-27 07:23:38 51°17.577 2°50.843 20.4877 0.079 0.43064 -1.035392
2010-05-27 07:23:43 51°17.577 2°50.842 20.4833 0.079 0.43064 -1.035392
2010-05-27 07:23:48 51°17.577 2°50.843 20.4768 0.079 0.43064 -1.035392
2010-05-27 07:23:53 51°17.577 2°50.842 20.4766 0.079 0.43064 -1.035392
2010-05-27 07:23:58 51°17.577 2°50.843 20.4893 0.079 0.43064 -1.000568
2010-05-27 07:24:03 51°17.577 2°50.843 20.4923 0.079 0.430654 -1.035392
2010-05-27 07:24:08 51°17.577 2°50.843 20.4865 0.079 0.430654 -1.035392
2010-05-27 07:24:14 51°17.577 2°50.843 20.4892 0.079 0.430661 -1.035392
2010-05-27 07:24:18 51°17.577 2°50.843 20.4752 0.079 0.430668 -1.000568
2010-05-27 07:24:23 51°17.577 2°50.843 20.4761 0.079 0.430668 -1.000568
2010-05-27 07:24:28 51°17.577 2°50.843 20.4819 0.079 0.430682 -1.035392
2010-05-27 07:24:34 51°17.577 2°50.843 20.4877 0.079 0.430675 -1.035392
2010-05-27 07:24:38 51°17.577 2°50.842 20.4829 0.079 0.430675 -1.035392
2010-05-27 07:24:43 51°17.577 2°50.843 20.4725 0.079 0.430675 -1.035392
2010-05-27 07:24:48 51°17.577 2°50.842 20.4798 0.079 0.430682 -1.000568
2010-05-27 07:24:53 51°17.577 2°50.843 20.4918 0.079 0.430682 -1.000568
2010-05-27 07:24:58 51°17.577 2°50.842 20.49 0.079 0.430689 -1.000568
2010-05-27 07:25:03 51°17.577 2°50.842 20.4873 0.079 0.430689 -1.000568
2010-05-27 07:25:08 51°17.578 2°50.842 20.4884 0.079 0.430689 -1.000568
2010-05-27 07:25:13 51°17.577 2°50.842 20.4934 0.079 0.430696 -1.000568
2010-05-27 07:25:18 51°17.578 2°50.842 20.4919 0.079 0.430696 -1.000568
2010-05-27 07:25:23 51°17.578 2°50.842 20.476 0.079 0.430696 -1.000568
2010-05-27 07:25:28 51°17.578 2°50.842 20.4854 0.079 0.430716 -1.035392
2010-05-27 07:25:33 51°17.578 2°50.842 20.4995 0.079 0.430709 -1.035392
2010-05-27 07:25:38 51°17.578 2°50.842 20.4906 0.079 0.430709 -1.035392
2010-05-27 07:25:43 51°17.578 2°50.842 20.4867 0.079 0.430709 -1.000568
2010-05-27 07:25:48 51°17.578 2°50.843 20.4942 0.079 0.430709 -1.000568
2010-05-27 07:25:53 51°17.578 2°50.842 20.5026 0.079 0.430716 -1.035392
2010-05-27 07:25:58 51°17.578 2°50.842 20.5015 0.079 0.430716 -1.035392
2010-05-27 07:26:03 51°17.578 2°50.841 20.5023 0.079 0.430723 -1.035392
2010-05-27 07:26:08 51°17.578 2°50.841 20.4978 0.079 0.430723 -1.035392
2010-05-27 07:26:14 51°17.578 2°50.841 20.5015 0.079 0.43073 -1.000568
2010-05-27 07:26:18 51°17.578 2°50.841 20.5107 0.079 0.430737 -1.035392
2010-05-27 07:26:23 51°17.578 2°50.84 20.5017 0.079 0.43073 -1.035392
2010-05-27 07:26:28 51°17.578 2°50.841 20.5072 0.079 0.43073 -1.000568
2010-05-27 07:26:33 51°17.578 2°50.841 20.5094 0.079 0.430744 -1.070216
2010-05-27 07:26:38 51°17.578 2°50.841 20.4983 0.079 0.430744 -1.070216
2010-05-27 07:26:43 51°17.578 2°50.84 20.5049 0.079 0.430751 -1.000568
2010-05-27 07:26:48 51°17.578 2°50.841 20.497 0.079 0.430744 -1.035392
2010-05-27 07:26:53 51°17.578 2°50.84 20.5114 0.079 0.430765 -1.035392
2010-05-27 07:26:58 51°17.578 2°50.841 20.5 0.079 0.430751 -1.035392
2010-05-27 07:27:03 51°17.578 2°50.84 20.5129 0.079 0.430758 -1.000568
2010-05-27 07:27:08 51°17.578 2°50.841 20.4867 0.079 0.430758 -1.000568
2010-05-27 07:27:13 51°17.578 2°50.84 20.5048 0.078896 0.430177 -1.035392
2010-05-27 07:27:18 51°17.578 2°50.84 20.5054 0.079 0.430765 -1.000568
2010-05-27 07:27:23 51°17.578 2°50.84 20.5128 0.079 0.430771 -1.035392
2010-05-27 07:27:28 51°17.578 2°50.841 20.5053 0.079 0.430778 -1.035392
2010-05-27 07:27:33 51°17.579 2°50.84 20.5136 0.079 0.430778 -1.000568
2010-05-27 07:27:38 51°17.578 2°50.841 20.5029 0.079 0.430778 -1.000568
2010-05-27 07:27:43 51°17.578 2°50.84 20.5024 0.078896 0.430198 -1.035392
2010-05-27 07:27:48 51°17.578 2°50.841 20.4892 0.079 0.430778 -1.035392
2010-05-27 07:27:53 51°17.578 2°50.84 20.5062 0.078896 0.430205 -1.035392
2010-05-27 07:27:58 51°17.578 2°50.841 20.4942 0.078896 0.430198 -1.035392
2010-05-27 07:28:03 51°17.578 2°50.84 20.5189 0.078896 0.430198 -1.035392
2010-05-27 07:28:08 51°17.578 2°50.841 20.5203 0.078896 0.430198 -1.035392
2010-05-27 07:28:13 51°17.578 2°50.84 20.5106 0.078896 0.430212 -1.000568
2010-05-27 07:28:18 51°17.578 2°50.841 20.5154 0.078896 0.430218 -1.035392
2010-05-27 07:28:22 51°17.578 2°50.84 20.5179 0.079 0.430806 -1.000568
2010-05-27 07:28:28 51°17.578 2°50.84 20.5213 0.079 0.430806 -1.000568
2010-05-27 07:28:33 51°17.578 2°50.84 20.5101 0.078896 0.430225 -1.035392
2010-05-27 07:28:38 51°17.578 2°50.84 20.5262 0.078896 0.430225 -1.035392
2010-05-27 07:28:43 51°17.578 2°50.84 20.5267 0.079 0.430813 -1.035392
2010-05-27 07:28:48 51°17.578 2°50.84 20.5277 0.079 0.43082 -1.035392
2010-05-27 07:28:53 51°17.578 2°50.841 20.5184 0.078896 0.430232 -1.035392
2010-05-27 07:28:58 51°17.578 2°50.84 20.5244 0.078896 0.430239 -1.035392
2010-05-27 07:29:03 51°17.578 2°50.84 20.5204 0.078896 0.430246 -1.035392
2010-05-27 07:29:08 51°17.578 2°50.84 20.5261 0.078896 0.430246 -1.035392
2010-05-27 07:29:14 51°17.578 2°50.84 20.5179 0.078896 0.430253 -1.035392
2010-05-27 07:29:18 51°17.578 2°50.84 20.5172 0.078896 0.430267 -1.035392
2010-05-27 07:29:23 51°17.578 2°50.84 20.5297 0.078896 0.430267 -1.000568
2010-05-27 07:29:28 51°17.578 2°50.841 20.5335 0.079 0.430847 -1.035392
2010-05-27 07:29:33 51°17.578 2°50.841 20.5223 0.078896 0.430274 -1.035392
2010-05-27 07:29:38 51°17.578 2°50.84 20.5291 0.078896 0.430274 -1.035392
2010-05-27 07:29:43 51°17.578 2°50.841 20.5213 0.078896 0.430274 -1.000568
2010-05-27 07:29:48 51°17.579 2°50.84 20.5339 0.078896 0.430274 -1.035392
2010-05-27 07:29:53 51°17.579 2°50.84 20.5231 0.078896 0.430281 -1.000568
2010-05-27 07:29:58 51°17.579 2°50.84 20.5307 0.078896 0.430281 -1.035392
2010-05-27 07:30:03 51°17.579 2°50.84 20.5221 0.078896 0.430287 -1.035392
2010-05-27 07:30:08 51°17.579 2°50.84 20.5373 0.078896 0.430287 -1.035392
2010-05-27 07:30:13 51°17.579 2°50.84 20.5338 0.078896 0.430287 -1.035392
2010-05-27 07:30:18 51°17.579 2°50.84 20.5304 0.078896 0.430308 -1.000568
2010-05-27 07:30:23 51°17.579 2°50.839 20.5369 0.078896 0.430308 -1.035392
2010-05-27 07:30:28 51°17.579 2°50.839 20.53 0.078896 0.430301 -1.035392
2010-05-27 07:30:33 51°17.579 2°50.839 20.5156 0.078896 0.430301 -1.000568
2010-05-27 07:30:38 51°17.579 2°50.839 20.524 0.078896 0.430301 -1.000568
2010-05-27 07:30:43 51°17.579 2°50.839 20.5377 0.078896 0.430308 -1.035392
2010-05-27 07:30:48 51°17.579 2°50.839 20.5432 0.078896 0.430315 -1.035392
2010-05-27 07:30:53 51°17.579 2°50.839 20.5433 0.078896 0.430329 -1.035392
2010-05-27 07:30:58 51°17.579 2°50.839 20.5394 0.078896 0.430322 -1.035392
2010-05-27 07:31:03 51°17.579 2°50.839 20.5483 0.078896 0.430336 -1.000568
2010-05-27 07:31:09 51°17.579 2°50.839 20.5273 0.078896 0.430336 -1.000568
2010-05-27 07:31:14 51°17.579 2°50.84 20.5501 0.078896 0.430336 -1.035392
2010-05-27 07:31:18 51°17.579 2°50.84 20.541 0.078896 0.430336 -1.035392
2010-05-27 07:31:23 51°17.579 2°50.84 20.5452 0.078896 0.430343 -1.035392
2010-05-27 07:31:28 51°17.579 2°50.84 20.5373 0.078896 0.43035 -1.000568
2010-05-27 07:31:33 51°17.579 2°50.84 20.5247 0.078896 0.430356 -1.035392
2010-05-27 07:31:38 51°17.579 2°50.84 20.5258 0.078896 0.430356 -1.035392
2010-05-27 07:31:43 51°17.579 2°50.84 20.5435 0.078896 0.430356 -1.035392
2010-05-27 07:31:48 51°17.579 2°50.84 20.5306 0.078896 0.430363 -1.035392
2010-05-27 07:31:53 51°17.579 2°50.839 20.5494 0.078896 0.430377 -1.035392
2010-05-27 07:31:58 51°17.579 2°50.84 20.5462 0.078896 0.430363 -1.035392
2010-05-27 07:32:03 51°17.579 2°50.839 20.551 0.078896 0.430377 -1.035392
2010-05-27 07:32:08 51°17.579 2°50.84 20.5341 0.078896 0.430377 -1.035392
2010-05-27 07:32:13 51°17.579 2°50.839 20.5569 0.078896 0.430384 -1.000568
2010-05-27 07:32:18 51°17.579 2°50.84 20.529 0.078896 0.430377 -1.035392
2010-05-27 07:32:23 51°17.579 2°50.839 20.5527 0.078896 0.430405 -1.000568
2010-05-27 07:32:28 51°17.579 2°50.84 20.5316 0.078896 0.430398 -1.000568
2010-05-27 07:32:33 51°17.579 2°50.839 20.5509 0.078896 0.430405 -1.000568
2010-05-27 07:32:38 51°17.579 2°50.84 20.5358 0.078896 0.430405 -1.000568
2010-05-27 07:32:42 51°17.579 2°50.839 20.5587 0.078896 0.430419 -1.035392
2010-05-27 07:32:48 51°17.579 2°50.84 20.5489 0.078896 0.430412 -1.000568
2010-05-27 07:32:53 51°17.579 2°50.839 20.5631 0.078896 0.430419 -1.035392
2010-05-27 07:32:58 51°17.579 2°50.839 20.5504 0.078896 0.430419 -1.035392
2010-05-27 07:33:03 51°17.579 2°50.839 20.5605 0.078896 0.430412 -1.035392
2010-05-27 07:33:09 51°17.579 2°50.84 20.5654 0.078896 0.430412 -1.035392
2010-05-27 07:33:14 51°17.579 2°50.839 20.5704 0.078896 0.430425 -1.035392
2010-05-27 07:33:18 51°17.579 2°50.84 20.5396 0.078896 0.430439 -1.035392
2010-05-27 07:33:23 51°17.579 2°50.839 20.5692 0.078896 0.430439 -1.035392
2010-05-27 07:33:28 51°17.579 2°50.839 20.5627 0.078896 0.430439 -1.035392
2010-05-27 07:33:33 51°17.579 2°50.839 20.5694 0.078896 0.430453 -1.035392
2010-05-27 07:33:38 51°17.579 2°50.839 20.5486 0.078896 0.430453 -1.035392
2010-05-27 07:33:43 51°17.579 2°50.839 20.5668 0.078896 0.430453 -1.035392
2010-05-27 07:33:48 51°17.579 2°50.839 20.5675 0.078896 0.430453 -1.035392
2010-05-27 07:33:53 51°17.58 2°50.839 20.5656 0.078896 0.43046 -1.035392
2010-05-27 07:33:58 51°17.58 2°50.839 20.5715 0.078896 0.430467 -1.000568
2010-05-27 07:34:03 51°17.58 2°50.839 20.5612 0.078896 0.43046 -1.035392
2010-05-27 07:34:08 51°17.58 2°50.839 20.5774 0.078896 0.43046 -1.035392
2010-05-27 07:34:13 51°17.58 2°50.839 20.5621 0.078896 0.430474 -1.035392
2010-05-27 07:34:18 51°17.58 2°50.839 20.5715 0.078896 0.430488 -1.035392
2010-05-27 07:34:22 51°17.58 2°50.839 20.5669 0.078896 0.430488 -1.000568
2010-05-27 07:34:28 51°17.58 2°50.839 20.5631 0.078896 0.430488 -1.035392
2010-05-27 07:34:33 51°17.58 2°50.839 20.5631 0.078896 0.430508 -1.000568
2010-05-27 07:34:38 51°17.58 2°50.84 20.5699 0.078896 0.430508 -1.000568
2010-05-27 07:34:43 51°17.58 2°50.84 20.5726 0.078896 0.430495 -1.035392
2010-05-27 07:34:48 51°17.58 2°50.84 20.568 0.078896 0.430501 -1.035392
2010-05-27 07:34:53 51°17.58 2°50.84 20.5705 0.078896 0.430508 -1.000568
2010-05-27 07:34:58 51°17.58 2°50.84 20.5753 0.078896 0.430515 -1.035392
2010-05-27 07:35:03 51°17.58 2°50.84 20.563 0.078896 0.430522 -1.035392
2010-05-27 07:35:08 51°17.58 2°50.84 20.5608 0.078896 0.430522 -1.035392
2010-05-27 07:35:13 51°17.58 2°50.84 20.5578 0.078896 0.430529 -1.035392
2010-05-27 07:35:18 51°17.58 2°50.84 20.5708 0.078896 0.430536 -1.000568
2010-05-27 07:35:23 51°17.58 2°50.84 20.5809 0.078896 0.430536 -1.000568
2010-05-27 07:35:28 51°17.58 2°50.84 20.5797 0.078896 0.430543 -1.035392
2010-05-27 07:35:34 51°17.58 2°50.84 20.5763 0.078896 0.430536 -1.070216
2010-05-27 07:35:38 51°17.58 2°50.84 20.5913 0.078896 0.430536 -1.070216
2010-05-27 07:35:42 51°17.58 2°50.84 20.5806 0.078896 0.43055 -1.000568
2010-05-27 07:35:48 51°17.579 2°50.84 20.5732 0.078896 0.430557 -1.000568
2010-05-27 07:35:53 51°17.579 2°50.84 20.5764 0.078896 0.430557 -1.035392
2010-05-27 07:35:58 51°17.579 2°50.84 20.5882 0.078896 0.430571 -1.000568
2010-05-27 07:36:03 51°17.579 2°50.84 20.5777 0.078896 0.430571 -1.000568
2010-05-27 07:36:08 51°17.579 2°50.84 20.5771 0.078896 0.430571 -1.000568
2010-05-27 07:36:13 51°17.579 2°50.84 20.5872 0.078896 0.430564 -1.070216
2010-05-27 07:36:18 51°17.579 2°50.84 20.5837 0.078896 0.430571 -1.035392
2010-05-27 07:36:23 51°17.579 2°50.84 20.5858 0.078896 0.430591 -1.070216
2010-05-27 07:36:28 51°17.579 2°50.84 20.5756 0.078896 0.430591 -1.035392
2010-05-27 07:36:33 51°17.58 2°50.84 20.5835 0.078896 0.430591 -1.035392
2010-05-27 07:36:38 51°17.579 2°50.841 20.5673 0.078896 0.430591 -1.035392
2010-05-27 07:36:43 51°17.58 2°50.84 20.5918 0.078896 0.430598 -1.000568
2010-05-27 07:36:48 51°17.58 2°50.841 20.5805 0.078896 0.430598 -1.000568
2010-05-27 07:36:53 51°17.58 2°50.84 20.5956 0.078896 0.430612 -1.035392
2010-05-27 07:36:58 51°17.58 2°50.84 20.589 0.078896 0.430612 -1.035392
2010-05-27 07:37:03 51°17.58 2°50.84 20.5789 0.078896 0.430619 -1.000568
2010-05-27 07:37:08 51°17.58 2°50.84 20.5814 0.078896 0.430619 -1.000568
2010-05-27 07:37:13 51°17.58 2°50.84 20.5924 0.078896 0.430626 -1.035392
2010-05-27 07:37:18 51°17.58 2°50.84 20.5858 0.078792 0.430045 -1.035392
2010-05-27 07:37:23 51°17.58 2°50.84 20.5982 0.078896 0.430633 -1.035392
2010-05-27 07:37:28 51°17.58 2°50.839 20.5865 0.078896 0.430633 -1.035392
2010-05-27 07:37:33 51°17.58 2°50.839 20.5857 0.078896 0.43064 -1.035392
2010-05-27 07:37:38 51°17.58 2°50.839 20.5838 0.078896 0.43064 -1.035392
2010-05-27 07:37:43 51°17.58 2°50.839 20.5888 0.078896 0.43064 -1.035392
2010-05-27 07:37:48 51°17.58 2°50.839 20.5977 0.078896 0.430647 -1.035392
2010-05-27 07:37:53 51°17.58 2°50.839 20.5985 0.078792 0.430059 -1.000568
2010-05-27 07:37:58 51°17.58 2°50.839 20.5828 0.078896 0.430647 -1.000568
2010-05-27 07:38:03 51°17.58 2°50.839 20.5923 0.078896 0.430653 -1.035392
2010-05-27 07:38:08 51°17.58 2°50.838 20.6023 0.078896 0.430653 -1.035392
2010-05-27 07:38:13 51°17.58 2°50.839 20.5897 0.078896 0.430667 -1.035392
2010-05-27 07:38:18 51°17.58 2°50.839 20.5874 0.078896 0.430667 -1.035392
2010-05-27 07:38:23 51°17.58 2°50.839 20.6062 0.078792 0.430086 -1.035392
2010-05-27 07:38:28 51°17.58 2°50.839 20.5875 0.078896 0.430688 -1.035392
2010-05-27 07:38:33 51°17.58 2°50.839 20.6108 0.078896 0.430681 -1.000568
2010-05-27 07:38:38 51°17.58 2°50.839 20.6011 0.078896 0.430681 -1.000568
2010-05-27 07:38:43 51°17.58 2°50.839 20.5951 0.078896 0.430688 -1.000568
2010-05-27 07:38:48 51°17.58 2°50.839 20.6096 0.078792 0.430107 -1.035392
2010-05-27 07:38:53 51°17.58 2°50.839 20.6147 0.078792 0.430121 -1.000568
2010-05-27 07:38:58 51°17.58 2°50.839 20.5972 0.078896 0.430702 -1.035392
2010-05-27 07:39:03 51°17.58 2°50.839 20.6097 0.078792 0.430121 -1.035392
2010-05-27 07:39:08 51°17.58 2°50.839 20.6098 0.078792 0.430121 -1.035392
2010-05-27 07:39:13 51°17.58 2°50.839 20.6184 0.078792 0.430121 -1.035392
2010-05-27 07:39:18 51°17.58 2°50.839 20.5988 0.078792 0.430128 -1.035392
2010-05-27 07:39:23 51°17.58 2°50.839 20.6188 0.078792 0.430134 -1.035392
2010-05-27 07:39:28 51°17.58 2°50.839 20.5993 0.078792 0.430141 -1.000568
2010-05-27 07:39:33 51°17.579 2°50.839 20.5944 0.078792 0.430148 -1.035392
2010-05-27 07:39:38 51°17.579 2°50.839 20.5947 0.078792 0.430148 -1.035392
2010-05-27 07:39:43 51°17.579 2°50.839 20.6155 0.078792 0.430155 -1.035392
2010-05-27 07:39:48 51°17.579 2°50.839 20.6128 0.078792 0.430155 -1.035392
2010-05-27 07:39:53 51°17.579 2°50.839 20.5974 0.078792 0.430155 -1.000568
2010-05-27 07:39:58 51°17.579 2°50.839 20.6189 0.078792 0.430169 -1.035392
2010-05-27 07:40:02 51°17.578 2°50.839 20.6078 0.078792 0.430176 -1.000568
2010-05-27 07:40:08 51°17.578 2°50.839 20.614 0.078792 0.430176 -1.000568
2010-05-27 07:40:13 51°17.578 2°50.839 20.6053 0.078896 0.430757 -1.035392
2010-05-27 07:40:18 51°17.578 2°50.839 20.623 0.078792 0.430176 -1.035392
2010-05-27 07:40:23 51°17.577 2°50.839 20.6101 0.078792 0.430176 -1.035392
2010-05-27 07:40:28 51°17.577 2°50.839 20.6146 0.078792 0.430176 -1.000568
2010-05-27 07:40:34 51°17.578 2°50.839 20.6118 0.078792 0.43019 -1.000568
2010-05-27 07:40:38 51°17.577 2°50.84 20.6118 0.078792 0.43019 -1.000568
2010-05-27 07:40:42 51°17.577 2°50.84 20.6114 0.078792 0.43019 -1.000568
2010-05-27 07:40:48 51°17.577 2°50.84 20.6003 0.078792 0.43019 -1.035392
2010-05-27 07:40:53 51°17.577 2°50.84 20.6127 0.078792 0.43021 -1.035392
2010-05-27 07:40:58 51°17.578 2°50.84 20.623 0.078792 0.430217 -1.000568
2010-05-27 07:41:03 51°17.577 2°50.841 20.5972 0.078792 0.43021 -1.000568
2010-05-27 07:41:08 51°17.578 2°50.84 20.6187 0.078792 0.43021 -1.000568
2010-05-27 07:41:13 51°17.578 2°50.841 20.6072 0.078792 0.430204 -1.035392
2010-05-27 07:41:18 51°17.578 2°50.84 20.6229 0.078792 0.430224 -1.070216
2010-05-27 07:41:23 51°17.578 2°50.841 20.6276 0.078792 0.430217 -1.035392
2010-05-27 07:41:28 51°17.578 2°50.84 20.6241 0.078792 0.430224 -1.000568
2010-05-27 07:41:33 51°17.577 2°50.841 20.6274 0.078792 0.430224 -1.035392
2010-05-27 07:41:38 51°17.578 2°50.84 20.63 0.078792 0.430224 -1.035392
2010-05-27 07:41:43 51°17.577 2°50.84 20.6084 0.078792 0.430238 -1.035392
2010-05-27 07:41:48 51°17.577 2°50.84 20.6163 0.078792 0.430231 -1.035392
2010-05-27 07:41:53 51°17.577 2°50.841 20.6278 0.078792 0.430238 -1.035392
2010-05-27 07:41:58 51°17.577 2°50.84 20.6297 0.078792 0.430252 -1.035392
2010-05-27 07:42:03 51°17.577 2°50.84 20.6255 0.078792 0.430252 -1.000568
2010-05-27 07:42:08 51°17.577 2°50.84 20.6265 0.078792 0.430252 -1.000568
2010-05-27 07:42:13 51°17.577 2°50.84 20.6294 0.078792 0.430252 -1.000568
2010-05-27 07:42:18 51°17.577 2°50.839 20.625 0.078792 0.430252 -1.000568
2010-05-27 07:42:23 51°17.577 2°50.84 20.6273 0.078792 0.430266 -1.035392
2010-05-27 07:42:28 51°17.577 2°50.839 20.6389 0.078792 0.430273 -1.000568
2010-05-27 07:42:33 51°17.576 2°50.84 20.6368 0.078792 0.430273 -1.035392
2010-05-27 07:42:38 51°17.577 2°50.839 20.6211 0.078792 0.430273 -1.035392
2010-05-27 07:42:43 51°17.577 2°50.84 20.6358 0.078792 0.430286 -1.000568
2010-05-27 07:42:48 51°17.577 2°50.839 20.6188 0.078792 0.43028 -1.000568
2010-05-27 07:42:53 51°17.577 2°50.84 20.6352 0.078792 0.430286 -1.035392
2010-05-27 07:42:58 51°17.577 2°50.84 20.6265 0.078792 0.430293 -1.035392
2010-05-27 07:43:02 51°17.577 2°50.84 20.6324 0.078792 0.43028 -1.000568
2010-05-27 07:43:08 51°17.578 2°50.839 20.6329 0.078792 0.43028 -1.000568
2010-05-27 07:43:13 51°17.577 2°50.84 20.6381 0.078792 0.430307 -1.000568
2010-05-27 07:43:18 51°17.578 2°50.84 20.624 0.078792 0.430307 -1.000568
2010-05-27 07:43:23 51°17.578 2°50.84 20.6454 0.078792 0.430321 -1.035392
2010-05-27 07:43:28 51°17.577 2°50.84 20.6331 0.078792 0.430314 -1.035392
2010-05-27 07:43:33 51°17.578 2°50.84 20.6393 0.078792 0.430307 -1.000568
2010-05-27 07:43:38 51°17.578 2°50.84 20.6294 0.078792 0.430307 -1.000568
2010-05-27 07:43:43 51°17.578 2°50.84 20.6425 0.078792 0.430321 -1.035392
2010-05-27 07:43:48 51°17.578 2°50.839 20.6349 0.078792 0.430328 -1.000568
2010-05-27 07:43:53 51°17.578 2°50.839 20.6554 0.078792 0.430335 -1.000568
2010-05-27 07:43:58 51°17.578 2°50.839 20.6359 0.078792 0.430328 -1.000568
2010-05-27 07:44:03 51°17.578 2°50.839 20.6461 0.078792 0.430328 -1.035392
2010-05-27 07:44:08 51°17.578 2°50.839 20.6353 0.078792 0.430328 -1.035392
2010-05-27 07:44:14 51°17.577 2°50.839 20.6335 0.078792 0.430349 -1.000568
2010-05-27 07:44:18 51°17.577 2°50.839 20.6271 0.078792 0.430342 -1.035392
2010-05-27 07:44:23 51°17.577 2°50.839 20.6405 0.078792 0.430349 -1.035392
2010-05-27 07:44:28 51°17.577 2°50.839 20.6494 0.078792 0.430362 -1.000568
2010-05-27 07:44:33 51°17.577 2°50.839 20.6359 0.078792 0.430356 -1.000568
2010-05-27 07:44:38 51°17.577 2°50.839 20.6479 0.078792 0.430356 -1.000568
2010-05-27 07:44:43 51°17.577 2°50.84 20.6498 0.078792 0.430362 -1.035392
2010-05-27 07:44:48 51°17.577 2°50.839 20.6557 0.078792 0.430369 -1.070216
2010-05-27 07:44:53 51°17.577 2°50.84 20.6328 0.078792 0.430362 -1.035392
2010-05-27 07:44:58 51°17.577 2°50.839 20.6469 0.078792 0.430376 -1.035392
2010-05-27 07:45:03 51°17.577 2°50.84 20.6516 0.078792 0.430383 -1.000568
2010-05-27 07:45:08 51°17.577 2°50.84 20.6514 0.078792 0.430383 -1.000568
2010-05-27 07:45:13 51°17.577 2°50.839 20.6395 0.078792 0.430383 -1.035392
2010-05-27 07:45:18 51°17.577 2°50.84 20.6509 0.078792 0.43039 -1.035392
2010-05-27 07:45:23 51°17.577 2°50.84 20.6501 0.078792 0.430397 -1.000568
2010-05-27 07:45:28 51°17.577 2°50.84 20.6462 0.078792 0.430397 -1.000568
2010-05-27 07:45:33 51°17.578 2°50.84 20.6545 0.078792 0.430411 -1.000568
2010-05-27 07:45:38 51°17.578 2°50.839 20.6545 0.078792 0.430411 -1.000568
2010-05-27 07:45:43 51°17.578 2°50.84 20.6463 0.078792 0.430418 -1.035392
2010-05-27 07:45:48 51°17.578 2°50.839 20.6677 0.078792 0.430418 -1.035392
2010-05-27 07:45:53 51°17.578 2°50.839 20.6627 0.078792 0.430418 -1.035392
2010-05-27 07:45:58 51°17.578 2°50.839 20.6628 0.078792 0.430425 -1.000568
2010-05-27 07:46:03 51°17.578 2°50.839 20.66 0.078792 0.430432 -1.035392
2010-05-27 07:46:08 51°17.578 2°50.839 20.6612 0.078792 0.430432 -1.035392
2010-05-27 07:46:13 51°17.578 2°50.839 20.6432 0.078792 0.430432 -1.070216
2010-05-27 07:46:18 51°17.578 2°50.838 20.669 0.078792 0.430439 -1.035392
2010-05-27 07:46:23 51°17.578 2°50.839 20.6554 0.078792 0.430439 -1.035392
2010-05-27 07:46:28 51°17.578 2°50.838 20.654 0.078792 0.430452 -1.035392
2010-05-27 07:46:33 51°17.578 2°50.838 20.6492 0.078792 0.430459 -1.035392
2010-05-27 07:46:38 51°17.578 2°50.838 20.6634 0.078792 0.430459 -1.035392
2010-05-27 07:46:43 51°17.578 2°50.838 20.6556 0.078792 0.430459 -1.035392
2010-05-27 07:46:48 51°17.578 2°50.838 20.6602 0.078792 0.430466 -1.000568
2010-05-27 07:46:53 51°17.578 2°50.838 20.6658 0.078792 0.430466 -1.035392